| time (UTC) | temp F | wind direction | speed MPH | gust MPH | rain 1hr in | rain 24hr in | rain mn in | humidity % | barometer mb |
| 20260905210004 | 77 | 0 | 0.0 | 11.0 | 0.00 | 0.00 | 0.00 | 17 | 1011.2 |
| 20260905205904 | 77 | 342 | 3.0 | 11.0 | 0.00 | 0.00 | 0.00 | 17 | 1011.2 |
| 20260905205805 | 77 | 347 | 4.0 | 11.0 | 0.00 | 0.00 | 0.00 | 17 | 1011.3 |
| 20260905205705 | 77 | 358 | 4.0 | 11.0 | 0.00 | 0.00 | 0.00 | 17 | 1011.3 |
| 20260905205604 | 77 | 16 | 5.0 | 11.0 | 0.00 | 0.00 | 0.00 | 17 | 1011.3 |
| 20260905205504 | 77 | 27 | 5.0 | 11.0 | 0.00 | 0.00 | 0.00 | 17 | 1011.3 |
| 20260905205405 | 77 | 47 | 4.0 | 11.0 | 0.00 | 0.00 | 0.00 | 17 | 1011.1 |
| 20260905205306 | 77 | 59 | 5.0 | 11.0 | 0.00 | 0.00 | 0.00 | 17 | 1011.2 |
| 20260905205205 | 77 | 53 | 4.0 | 10.0 | 0.00 | 0.00 | 0.00 | 17 | 1011.3 |
| 20260905205105 | 77 | 46 | 1.0 | 10.0 | 0.00 | 0.00 | 0.00 | 17 | 1011.3 |
| 20260905204904 | 77 | 34 | 5.0 | 10.0 | 0.00 | 0.00 | 0.00 | 17 | 1011.3 |
| 20260905204805 | 77 | 40 | 2.0 | 11.0 | 0.00 | 0.00 | 0.00 | 17 | 1011.3 |
| 20260905204605 | 77 | 41 | 1.0 | 11.0 | 0.00 | 0.00 | 0.00 | 17 | 1011.3 |
| 20260905204505 | 77 | 40 | 1.0 | 11.0 | 0.00 | 0.00 | 0.00 | 17 | 1011.4 |
| 20260905204404 | 77 | 43 | 3.0 | 11.0 | 0.00 | 0.00 | 0.00 | 16 | 1011.5 |
| 20260905204304 | 77 | 41 | 4.0 | 11.0 | 0.00 | 0.00 | 0.00 | 16 | 1011.5 |
| 20260905204105 | 77 | 42 | 4.0 | 11.0 | 0.00 | 0.00 | 0.00 | 16 | 1011.4 |
| 20260905204005 | 77 | 48 | 5.0 | 11.0 | 0.00 | 0.00 | 0.00 | 17 | 1011.5 |
| 20260905203904 | 77 | 42 | 7.0 | 11.0 | 0.00 | 0.00 | 0.00 | 16 | 1011.5 |
| 20260905203804 | 77 | 31 | 8.0 | 11.0 | 0.00 | 0.00 | 0.00 | 16 | 1011.5 |
| 20260905203705 | 77 | 19 | 5.0 | 11.0 | 0.00 | 0.00 | 0.00 | 16 | 1011.5 |
| 20260905203607 | 77 | 353 | 4.0 | 11.0 | 0.00 | 0.00 | 0.00 | 17 | 1011.5 |
| 20260905203504 | 77 | 343 | 1.0 | 9.0 | 0.00 | 0.00 | 0.00 | 17 | 1011.4 |
| 20260905203405 | 77 | 345 | 1.0 | 9.0 | 0.00 | 0.00 | 0.00 | 17 | 1011.5 |
| 20260905203305 | 77 | 352 | 1.0 | 9.0 | 0.00 | 0.00 | 0.00 | 17 | 1011.5 |
| 20260905203205 | 77 | 10 | 1.0 | 9.0 | 0.00 | 0.00 | 0.00 | 17 | 1011.5 |
| 20260905203105 | 77 | 4 | 4.0 | 11.0 | 0.00 | 0.00 | 0.00 | 17 | 1011.6 |
| 20260905202505 | 77 | 10 | 2.0 | 11.0 | 0.00 | 0.00 | 0.00 | 17 | 1011.6 |
| 20260905202404 | 77 | 12 | 2.0 | 11.0 | 0.00 | 0.00 | 0.00 | 17 | 1011.6 |
| 20260905202306 | 77 | 10 | 1.0 | 11.0 | 0.00 | 0.00 | 0.00 | 17 | 1011.7 |
| 20260905202205 | 77 | 2 | 4.0 | 11.0 | 0.00 | 0.00 | 0.00 | 17 | 1011.7 |
| 20260905202105 | 77 | 3 | 6.0 | 11.0 | 0.00 | 0.00 | 0.00 | 17 | 1011.7 |
| 20260905202005 | 77 | 2 | 4.0 | 11.0 | 0.00 | 0.00 | 0.00 | 17 | 1011.7 |
| 20260905201904 | 77 | 5 | 4.0 | 11.0 | 0.00 | 0.00 | 0.00 | 17 | 1011.8 |
| 20260905201805 | 77 | 357 | 6.0 | 11.0 | 0.00 | 0.00 | 0.00 | 17 | 1011.7 |
| 20260905201705 | 77 | 352 | 4.0 | 11.0 | 0.00 | 0.00 | 0.00 | 18 | 1011.7 |
| 20260905201605 | 77 | 246 | 4.0 | 8.0 | 0.00 | 0.00 | 0.00 | 18 | 1011.8 |
| 20260905201505 | 77 | 217 | 4.0 | 8.0 | 0.00 | 0.00 | 0.00 | 18 | 1011.7 |
| 20260905201405 | 77 | 216 | 2.0 | 8.0 | 0.00 | 0.00 | 0.00 | 18 | 1011.8 |
| 20260905201305 | 76 | 217 | 3.0 | 8.0 | 0.00 | 0.00 | 0.00 | 18 | 1011.8 |
| 20260905201205 | 76 | 198 | 2.0 | 8.0 | 0.00 | 0.00 | 0.00 | 19 | 1011.7 |
| 20260905201104 | 76 | 200 | 2.0 | 8.0 | 0.00 | 0.00 | 0.00 | 19 | 1011.8 |
| 20260905201004 | 76 | 196 | 1.0 | 8.0 | 0.00 | 0.00 | 0.00 | 18 | 1011.8 |
| 20260905200905 | 76 | 209 | 1.0 | 8.0 | 0.00 | 0.00 | 0.00 | 18 | 1011.8 |
| 20260905200805 | 76 | 212 | 2.0 | 8.0 | 0.00 | 0.00 | 0.00 | 18 | 1011.8 |
| 20260905200704 | 76 | 212 | 2.0 | 8.0 | 0.00 | 0.00 | 0.00 | 18 | 1011.8 |
| 20260905200605 | 76 | 205 | 4.0 | 8.0 | 0.00 | 0.00 | 0.00 | 18 | 1011.8 |
| 20260905200505 | 76 | 206 | 4.0 | 8.0 | 0.00 | 0.00 | 0.00 | 18 | 1011.8 |
| 20260905200404 | 76 | 204 | 2.0 | 8.0 | 0.00 | 0.00 | 0.00 | 18 | 1011.8 |
| 20260905200205 | 76 | 217 | 4.0 | 8.0 | 0.00 | 0.00 | 0.00 | 18 | 1011.9 |
| 20260905200104 | 76 | 226 | 4.0 | 8.0 | 0.00 | 0.00 | 0.00 | 17 | 1011.9 |
| 20260905200004 | 76 | 230 | 4.0 | 8.0 | 0.00 | 0.00 | 0.00 | 17 | 1011.9 |
| 20260905195905 | 76 | 216 | 1.0 | 6.0 | 0.00 | 0.00 | 0.00 | 18 | 1011.9 |
| 20260905195704 | 76 | 217 | 1.0 | 6.0 | 0.00 | 0.00 | 0.00 | 18 | 1011.9 |
| 20260905195604 | 76 | 228 | 1.0 | 6.0 | 0.00 | 0.00 | 0.00 | 18 | 1012.0 |
| 20260905195505 | 76 | 214 | 2.0 | 6.0 | 0.00 | 0.00 | 0.00 | 18 | 1012.0 |
| 20260905195405 | 76 | 207 | 2.0 | 6.0 | 0.00 | 0.00 | 0.00 | 18 | 1012.1 |
| 20260905195306 | 76 | 195 | 2.0 | 6.0 | 0.00 | 0.00 | 0.00 | 18 | 1012.0 |
| 20260905195205 | 76 | 177 | 3.0 | 6.0 | 0.00 | 0.00 | 0.00 | 18 | 1012.0 |
| 20260905195105 | 76 | 152 | 3.0 | 5.0 | 0.00 | 0.00 | 0.00 | 19 | 1011.9 |
| 20260905195005 | 76 | 147 | 2.0 | 5.0 | 0.00 | 0.00 | 0.00 | 19 | 1011.9 |
| 20260905194905 | 76 | 136 | 1.0 | 5.0 | 0.00 | 0.00 | 0.00 | 19 | 1011.9 |
| 20260905194804 | 76 | 126 | 2.0 | 7.0 | 0.00 | 0.00 | 0.00 | 19 | 1011.9 |
| 20260905194705 | 76 | 0 | 0.0 | 7.0 | 0.00 | 0.00 | 0.00 | 19 | 1012.1 |
| 20260905194605 | 76 | 126 | 2.0 | 7.0 | 0.00 | 0.00 | 0.00 | 19 | 1011.9 |
| 20260905194504 | 76 | 130 | 2.0 | 7.0 | 0.00 | 0.00 | 0.00 | 19 | 1012.0 |
| 20260905194404 | 75 | 156 | 3.0 | 7.0 | 0.00 | 0.00 | 0.00 | 21 | 1012.0 |
| 20260905194305 | 75 | 138 | 1.0 | 7.0 | 0.00 | 0.00 | 0.00 | 21 | 1012.0 |
| 20260905194205 | 75 | 148 | 1.0 | 7.0 | 0.00 | 0.00 | 0.00 | 21 | 1012.0 |
| 20260905194105 | 75 | 195 | 3.0 | 7.0 | 0.00 | 0.00 | 0.00 | 21 | 1012.1 |
| 20260905194005 | 75 | 215 | 2.0 | 7.0 | 0.00 | 0.00 | 0.00 | 20 | 1012.1 |
| 20260905193905 | 75 | 212 | 4.0 | 8.0 | 0.00 | 0.00 | 0.00 | 20 | 1012.1 |
| 20260905193805 | 74 | 195 | 2.0 | 8.0 | 0.00 | 0.00 | 0.00 | 21 | 1012.1 |
| 20260905193705 | 74 | 197 | 1.0 | 8.0 | 0.00 | 0.00 | 0.00 | 21 | 1012.1 |
| 20260905193605 | 74 | 204 | 3.0 | 8.0 | 0.00 | 0.00 | 0.00 | 22 | 1012.0 |
| 20260905193505 | 74 | 209 | 2.0 | 8.0 | 0.00 | 0.00 | 0.00 | 22 | 1012.2 |
| 20260905193404 | 74 | 216 | 2.0 | 8.0 | 0.00 | 0.00 | 0.00 | 21 | 1012.1 |
| 20260905193304 | 74 | 0 | 0.0 | 8.0 | 0.00 | 0.00 | 0.00 | 20 | 1012.2 |
| 20260905193205 | 74 | 219 | 3.0 | 8.0 | 0.00 | 0.00 | 0.00 | 20 | 1012.3 |
| 20260905193105 | 74 | 224 | 4.0 | 11.0 | 0.00 | 0.00 | 0.00 | 20 | 1012.3 |
| 20260905193004 | 74 | 232 | 4.0 | 11.0 | 0.00 | 0.00 | 0.00 | 20 | 1012.2 |
| 20260905192905 | 74 | 241 | 5.0 | 11.0 | 0.00 | 0.00 | 0.00 | 20 | 1012.3 |
| 20260905192804 | 74 | 251 | 4.0 | 11.0 | 0.00 | 0.00 | 0.00 | 20 | 1012.3 |
| 20260905192705 | 74 | 250 | 2.0 | 11.0 | 0.00 | 0.00 | 0.00 | 20 | 1012.3 |
| 20260905192605 | 74 | 248 | 2.0 | 11.0 | 0.00 | 0.00 | 0.00 | 20 | 1012.4 |
| 20260905192004 | 75 | 187 | 3.0 | 7.0 | 0.00 | 0.00 | 0.00 | 21 | 1012.4 |
| 20260905191904 | 75 | 169 | 2.0 | 7.0 | 0.00 | 0.00 | 0.00 | 22 | 1012.5 |
| 20260905191805 | 75 | 160 | 1.0 | 7.0 | 0.00 | 0.00 | 0.00 | 23 | 1012.5 |
| 20260905191704 | 74 | 155 | 2.0 | 7.0 | 0.00 | 0.00 | 0.00 | 22 | 1012.4 |
| 20260905191604 | 74 | 155 | 1.0 | 7.0 | 0.00 | 0.00 | 0.00 | 22 | 1012.5 |
| 20260905191505 | 74 | 150 | 1.0 | 7.0 | 0.00 | 0.00 | 0.00 | 22 | 1012.5 |
| 20260905191405 | 74 | 139 | 2.0 | 7.0 | 0.00 | 0.00 | 0.00 | 22 | 1012.4 |
| 20260905191304 | 74 | 119 | 2.0 | 7.0 | 0.00 | 0.00 | 0.00 | 22 | 1012.5 |
| 20260905191205 | 74 | 101 | 2.0 | 5.0 | 0.00 | 0.00 | 0.00 | 23 | 1012.6 |
| 20260905191105 | 74 | 93 | 2.0 | 5.0 | 0.00 | 0.00 | 0.00 | 22 | 1012.6 |
| 20260905191004 | 74 | 81 | 2.0 | 5.0 | 0.00 | 0.00 | 0.00 | 22 | 1012.6 |
| 20260905190905 | 74 | 70 | 3.0 | 5.0 | 0.00 | 0.00 | 0.00 | 22 | 1012.7 |
| 20260905190804 | 74 | 64 | 1.0 | 5.0 | 0.00 | 0.00 | 0.00 | 22 | 1012.6 |
| 20260905190705 | 74 | 57 | 1.0 | 5.0 | 0.00 | 0.00 | 0.00 | 23 | 1012.7 |
| 20260905190605 | 73 | 46 | 2.0 | 5.0 | 0.00 | 0.00 | 0.00 | 22 | 1012.7 |
| 20260905190504 | 73 | 42 | 2.0 | 5.0 | 0.00 | 0.00 | 0.00 | 22 | 1012.8 |
| 20260905190305 | 73 | 28 | 2.0 | 5.0 | 0.00 | 0.00 | 0.00 | 22 | 1012.7 |
| 20260905190204 | 73 | 18 | 1.0 | 5.0 | 0.00 | 0.00 | 0.00 | 22 | 1012.7 |
| 20260905190105 | 73 | 23 | 2.0 | 5.0 | 0.00 | 0.00 | 0.00 | 23 | 1012.7 |
| 20260905190005 | 73 | 14 | 2.0 | 5.0 | 0.00 | 0.00 | 0.00 | 23 | 1012.8 |
| 20260905185904 | 73 | 14 | 1.0 | 5.0 | 0.00 | 0.00 | 0.00 | 23 | 1012.8 |
| 20260905185805 | 72 | 4 | 2.0 | 6.0 | 0.00 | 0.00 | 0.00 | 23 | 1012.8 |
| 20260905185705 | 72 | 350 | 2.0 | 6.0 | 0.00 | 0.00 | 0.00 | 24 | 1012.7 |
| 20260905185605 | 72 | 340 | 2.0 | 6.0 | 0.00 | 0.00 | 0.00 | 24 | 1012.8 |
| 20260905185505 | 72 | 0 | 0.0 | 6.0 | 0.00 | 0.00 | 0.00 | 24 | 1012.8 |
| 20260905185404 | 72 | 311 | 2.0 | 6.0 | 0.00 | 0.00 | 0.00 | 24 | 1012.8 |
| 20260905185306 | 72 | 293 | 2.0 | 6.0 | 0.00 | 0.00 | 0.00 | 25 | 1012.8 |
| 20260905185205 | 72 | 261 | 2.0 | 7.0 | 0.00 | 0.00 | 0.00 | 25 | 1012.8 |
| 20260905185104 | 71 | 265 | 1.0 | 7.0 | 0.00 | 0.00 | 0.00 | 25 | 1012.9 |
| 20260905185004 | 71 | 268 | 2.0 | 7.0 | 0.00 | 0.00 | 0.00 | 25 | 1012.9 |
| 20260905184905 | 71 | 261 | 2.0 | 7.0 | 0.00 | 0.00 | 0.00 | 26 | 1012.8 |
| 20260905184805 | 71 | 256 | 2.0 | 8.0 | 0.00 | 0.00 | 0.00 | 27 | 1012.9 |
| 20260905184704 | 71 | 252 | 1.0 | 8.0 | 0.00 | 0.00 | 0.00 | 27 | 1012.8 |
| 20260905184604 | 70 | 251 | 2.0 | 8.0 | 0.00 | 0.00 | 0.00 | 27 | 1012.9 |
| 20260905184505 | 70 | 256 | 2.0 | 8.0 | 0.00 | 0.00 | 0.00 | 27 | 1012.8 |
| 20260905184405 | 70 | 258 | 1.0 | 8.0 | 0.00 | 0.00 | 0.00 | 26 | 1012.9 |
| 20260905184304 | 70 | 263 | 4.0 | 8.0 | 0.00 | 0.00 | 0.00 | 26 | 1012.9 |
| 20260905184204 | 70 | 272 | 3.0 | 8.0 | 0.00 | 0.00 | 0.00 | 26 | 1012.9 |
| 20260905183605 | 70 | 257 | 3.0 | 6.0 | 0.00 | 0.00 | 0.00 | 27 | 1013.1 |
| 20260905183504 | 70 | 258 | 1.0 | 6.0 | 0.00 | 0.00 | 0.00 | 27 | 1013.1 |
| 20260905183404 | 70 | 266 | 2.0 | 6.0 | 0.00 | 0.00 | 0.00 | 27 | 1013.0 |
| 20260905183305 | 70 | 257 | 3.0 | 6.0 | 0.00 | 0.00 | 0.00 | 27 | 1013.0 |
| 20260905183204 | 69 | 247 | 2.0 | 6.0 | 0.00 | 0.00 | 0.00 | 27 | 1013.0 |
| 20260905183104 | 69 | 259 | 2.0 | 6.0 | 0.00 | 0.00 | 0.00 | 28 | 1013.0 |
| 20260905182505 | 69 | 0 | 0.0 | 5.0 | 0.00 | 0.00 | 0.00 | 28 | 1013.2 |
| 20260905182405 | 69 | 267 | 2.0 | 5.0 | 0.00 | 0.00 | 0.00 | 28 | 1013.2 |
| 20260905182306 | 69 | 270 | 2.0 | 5.0 | 0.00 | 0.00 | 0.00 | 28 | 1013.2 |
| 20260905182204 | 69 | 275 | 2.0 | 5.0 | 0.00 | 0.00 | 0.00 | 28 | 1013.2 |
| 20260905182104 | 69 | 281 | 2.0 | 5.0 | 0.00 | 0.00 | 0.00 | 28 | 1013.2 |
| 20260905182005 | 69 | 279 | 2.0 | 5.0 | 0.00 | 0.00 | 0.00 | 28 | 1013.2 |
| 20260905181905 | 69 | 276 | 3.0 | 5.0 | 0.00 | 0.00 | 0.00 | 28 | 1013.2 |
| 20260905181804 | 69 | 275 | 2.0 | 6.0 | 0.00 | 0.00 | 0.00 | 28 | 1013.2 |
| 20260905181705 | 70 | 284 | 2.0 | 6.0 | 0.00 | 0.00 | 0.00 | 27 | 1013.2 |
| 20260905181605 | 70 | 286 | 2.0 | 6.0 | 0.00 | 0.00 | 0.00 | 27 | 1013.2 |
| 20260905181505 | 70 | 294 | 2.0 | 6.0 | 0.00 | 0.00 | 0.00 | 27 | 1013.3 |
| 20260905181405 | 70 | 307 | 1.0 | 7.0 | 0.00 | 0.00 | 0.00 | 27 | 1013.2 |
| 20260905181304 | 70 | 315 | 2.0 | 7.0 | 0.00 | 0.00 | 0.00 | 27 | 1013.3 |
| 20260905181204 | 70 | 323 | 2.0 | 7.0 | 0.00 | 0.00 | 0.00 | 27 | 1013.3 |
| 20260905181105 | 70 | 333 | 2.0 | 8.0 | 0.00 | 0.00 | 0.00 | 27 | 1013.3 |
| 20260905181005 | 70 | 358 | 3.0 | 8.0 | 0.00 | 0.00 | 0.00 | 27 | 1013.3 |
| 20260905180904 | 70 | 17 | 2.0 | 8.0 | 0.00 | 0.00 | 0.00 | 28 | 1013.3 |
| 20260905180804 | 70 | 29 | 2.0 | 8.0 | 0.00 | 0.00 | 0.00 | 28 | 1013.2 |
| 20260905180705 | 70 | 32 | 1.0 | 8.0 | 0.00 | 0.00 | 0.00 | 28 | 1013.2 |
| 20260905180605 | 69 | 41 | 2.0 | 8.0 | 0.00 | 0.00 | 0.00 | 28 | 1013.3 |
| 20260905180504 | 69 | 54 | 4.0 | 8.0 | 0.00 | 0.00 | 0.00 | 28 | 1013.3 |
| 20260905180405 | 69 | 64 | 3.0 | 8.0 | 0.00 | 0.00 | 0.00 | 29 | 1013.3 |
| 20260905180305 | 69 | 72 | 1.0 | 8.0 | 0.00 | 0.00 | 0.00 | 29 | 1013.3 |
| 20260905180205 | 69 | 78 | 4.0 | 8.0 | 0.00 | 0.00 | 0.00 | 28 | 1013.4 |
| 20260905180105 | 69 | 87 | 5.0 | 8.0 | 0.00 | 0.00 | 0.00 | 29 | 1013.4 |
| 20260905180004 | 69 | 102 | 3.0 | 7.0 | 0.00 | 0.00 | 0.00 | 30 | 1013.3 |
| 20260905175905 | 69 | 103 | 2.0 | 6.0 | 0.00 | 0.00 | 0.00 | 30 | 1013.4 |
| 20260905175805 | 69 | 0 | 0.0 | 7.0 | 0.00 | 0.00 | 0.00 | 30 | 1013.4 |
| 20260905175704 | 69 | 0 | 0.0 | 7.0 | 0.00 | 0.00 | 0.00 | 30 | 1013.4 |
| 20260905175605 | 69 | 118 | 3.0 | 7.0 | 0.00 | 0.00 | 0.00 | 30 | 1013.4 |
| 20260905175505 | 69 | 120 | 1.0 | 7.0 | 0.00 | 0.00 | 0.00 | 31 | 1013.4 |
| 20260905175404 | 69 | 0 | 0.0 | 7.0 | 0.00 | 0.00 | 0.00 | 32 | 1013.5 |
| 20260905175306 | 69 | 108 | 2.0 | 7.0 | 0.00 | 0.00 | 0.00 | 32 | 1013.3 |
| 20260905175205 | 69 | 97 | 3.0 | 8.0 | 0.00 | 0.00 | 0.00 | 31 | 1013.5 |
| 20260905175104 | 69 | 93 | 3.0 | 8.0 | 0.00 | 0.00 | 0.00 | 31 | 1013.4 |
| 20260905175005 | 69 | 89 | 2.0 | 8.0 | 0.00 | 0.00 | 0.00 | 31 | 1013.4 |
| 20260905174905 | 69 | 88 | 3.0 | 8.0 | 0.00 | 0.00 | 0.00 | 31 | 1013.4 |
| 20260905174804 | 69 | 90 | 2.0 | 8.0 | 0.00 | 0.00 | 0.00 | 31 | 1013.3 |
| 20260905174704 | 69 | 87 | 2.0 | 8.0 | 0.00 | 0.00 | 0.00 | 31 | 1013.5 |
| 20260905174605 | 69 | 83 | 2.0 | 8.0 | 0.00 | 0.00 | 0.00 | 31 | 1013.4 |
| 20260905174505 | 69 | 70 | 2.0 | 8.0 | 0.00 | 0.00 | 0.00 | 31 | 1013.5 |
| 20260905174404 | 69 | 60 | 2.0 | 8.0 | 0.00 | 0.00 | 0.00 | 31 | 1013.4 |
| 20260905174304 | 69 | 49 | 5.0 | 8.0 | 0.00 | 0.00 | 0.00 | 31 | 1013.4 |
| 20260905174205 | 69 | 50 | 2.0 | 8.0 | 0.00 | 0.00 | 0.00 | 32 | 1013.5 |
| 20260905174105 | 69 | 63 | 1.0 | 7.0 | 0.00 | 0.00 | 0.00 | 33 | 1013.4 |
| 20260905173604 | 68 | 28 | 2.0 | 7.0 | 0.00 | 0.00 | 0.00 | 32 | 1013.6 |
| 20260905173504 | 68 | 41 | 3.0 | 8.0 | 0.00 | 0.00 | 0.00 | 33 | 1013.5 |
| 20260905173404 | 68 | 48 | 3.0 | 8.0 | 0.00 | 0.00 | 0.00 | 33 | 1013.6 |
| 20260905173305 | 68 | 39 | 4.0 | 8.0 | 0.00 | 0.00 | 0.00 | 33 | 1013.6 |
| 20260905173204 | 68 | 0 | 0.0 | 8.0 | 0.00 | 0.00 | 0.00 | 33 | 1013.6 |
| 20260905173104 | 67 | 44 | 3.0 | 8.0 | 0.00 | 0.00 | 0.00 | 33 | 1013.6 |
| 20260905173004 | 67 | 54 | 3.0 | 8.0 | 0.00 | 0.00 | 0.00 | 33 | 1013.6 |
| 20260905172905 | 67 | 53 | 4.0 | 8.0 | 0.00 | 0.00 | 0.00 | 33 | 1013.7 |
| 20260905172804 | 67 | 48 | 4.0 | 8.0 | 0.00 | 0.00 | 0.00 | 33 | 1013.7 |
| 20260905172705 | 67 | 40 | 4.0 | 8.0 | 0.00 | 0.00 | 0.00 | 33 | 1013.6 |
| 20260905172605 | 67 | 33 | 4.0 | 12.0 | 0.00 | 0.00 | 0.00 | 33 | 1013.7 |
| 20260905172504 | 67 | 19 | 4.0 | 12.0 | 0.00 | 0.00 | 0.00 | 33 | 1013.6 |
| 20260905172405 | 67 | 5 | 4.0 | 12.0 | 0.00 | 0.00 | 0.00 | 33 | 1013.7 |
| 20260905172305 | 67 | 13 | 2.0 | 12.0 | 0.00 | 0.00 | 0.00 | 34 | 1013.7 |
| 20260905172204 | 67 | 0 | 0.0 | 12.0 | 0.00 | 0.00 | 0.00 | 34 | 1013.6 |
| 20260905172105 | 67 | 351 | 1.0 | 12.0 | 0.00 | 0.00 | 0.00 | 34 | 1013.7 |
| 20260905172005 | 67 | 357 | 2.0 | 12.0 | 0.00 | 0.00 | 0.00 | 34 | 1013.7 |
| 20260905171905 | 67 | 359 | 3.0 | 12.0 | 0.00 | 0.00 | 0.00 | 33 | 1013.7 |
| 20260905171805 | 67 | 18 | 2.0 | 12.0 | 0.00 | 0.00 | 0.00 | 34 | 1013.7 |
| 20260905171304 | 67 | 128 | 2.0 | 5.0 | 0.00 | 0.00 | 0.00 | 35 | 1013.8 |
| 20260905171204 | 67 | 108 | 1.0 | 5.0 | 0.00 | 0.00 | 0.00 | 35 | 1013.6 |
| 20260905171105 | 67 | 0 | 0.0 | 5.0 | 0.00 | 0.00 | 0.00 | 35 | 1013.7 |
| 20260905171004 | 67 | 103 | 1.0 | 5.0 | 0.00 | 0.00 | 0.00 | 35 | 1013.8 |
| 20260905170904 | 67 | 109 | 1.0 | 5.0 | 0.00 | 0.00 | 0.00 | 35 | 1013.8 |
| 20260905170805 | 67 | 125 | 2.0 | 5.0 | 0.00 | 0.00 | 0.00 | 35 | 1013.8 |
| 20260905170205 | 66 | 171 | 1.0 | 4.0 | 0.00 | 0.00 | 0.00 | 37 | 1013.7 |
| 20260905170104 | 66 | 176 | 1.0 | 4.0 | 0.00 | 0.00 | 0.00 | 38 | 1013.7 |
| 20260905170004 | 66 | 182 | 1.0 | 4.0 | 0.00 | 0.00 | 0.00 | 38 | 1013.7 |
| 20260905165904 | 66 | 174 | 2.0 | 4.0 | 0.00 | 0.00 | 0.00 | 38 | 1013.6 |
| 20260905165804 | 66 | 174 | 2.0 | 4.0 | 0.00 | 0.00 | 0.00 | 38 | 1013.7 |
| 20260905165704 | 66 | 192 | 1.0 | 4.0 | 0.00 | 0.00 | 0.00 | 38 | 1013.6 |
| 20260905165604 | 66 | 198 | 2.0 | 4.0 | 0.00 | 0.00 | 0.00 | 38 | 1013.7 |
| 20260905165505 | 66 | 198 | 2.0 | 4.0 | 0.00 | 0.00 | 0.00 | 38 | 1013.7 |
| 20260905165404 | 66 | 209 | 2.0 | 4.0 | 0.00 | 0.00 | 0.00 | 38 | 1013.7 |
| 20260905165306 | 66 | 195 | 2.0 | 4.0 | 0.00 | 0.00 | 0.00 | 38 | 1013.7 |
| 20260905165205 | 65 | 175 | 2.0 | 4.0 | 0.00 | 0.00 | 0.00 | 39 | 1013.7 |
| 20260905165104 | 65 | 179 | 2.0 | 4.0 | 0.00 | 0.00 | 0.00 | 39 | 1013.6 |
| 20260905165004 | 65 | 0 | 0.0 | 4.0 | 0.00 | 0.00 | 0.00 | 39 | 1013.6 |
| 20260905164904 | 65 | 0 | 0.0 | 4.0 | 0.00 | 0.00 | 0.00 | 39 | 1013.7 |
| 20260905164804 | 65 | 157 | 1.0 | 4.0 | 0.00 | 0.00 | 0.00 | 39 | 1013.8 |
| 20260905164704 | 65 | 133 | 2.0 | 4.0 | 0.00 | 0.00 | 0.00 | 39 | 1013.7 |
| 20260905164605 | 65 | 124 | 2.0 | 4.0 | 0.00 | 0.00 | 0.00 | 39 | 1013.7 |
| 20260905164504 | 65 | 110 | 2.0 | 4.0 | 0.00 | 0.00 | 0.00 | 39 | 1013.9 |
| 20260905164304 | 65 | 104 | 1.0 | 4.0 | 0.00 | 0.00 | 0.00 | 40 | 1013.7 |
| 20260905164204 | 64 | 0 | 0.0 | 4.0 | 0.00 | 0.00 | 0.00 | 40 | 1013.8 |
| 20260905164104 | 64 | 105 | 2.0 | 4.0 | 0.00 | 0.00 | 0.00 | 40 | 1013.8 |
| 20260905164004 | 64 | 100 | 2.0 | 4.0 | 0.00 | 0.00 | 0.00 | 40 | 1013.8 |
| 20260905163905 | 64 | 118 | 2.0 | 4.0 | 0.00 | 0.00 | 0.00 | 40 | 1013.8 |
| 20260905163804 | 64 | 153 | 2.0 | 4.0 | 0.00 | 0.00 | 0.00 | 41 | 1013.8 |
| 20260905163704 | 64 | 185 | 2.0 | 4.0 | 0.00 | 0.00 | 0.00 | 41 | 1013.8 |
| 20260905163604 | 64 | 199 | 2.0 | 4.0 | 0.00 | 0.00 | 0.00 | 41 | 1013.7 |
| 20260905163504 | 64 | 214 | 2.0 | 3.0 | 0.00 | 0.00 | 0.00 | 42 | 1013.8 |
| 20260905163404 | 63 | 0 | 0.0 | 4.0 | 0.00 | 0.00 | 0.00 | 42 | 1013.8 |
| 20260905163304 | 63 | 0 | 0.0 | 4.0 | 0.00 | 0.00 | 0.00 | 42 | 1013.8 |
| 20260905163204 | 63 | 0 | 0.0 | 4.0 | 0.00 | 0.00 | 0.00 | 42 | 1013.8 |
| 20260905163104 | 63 | 223 | 1.0 | 4.0 | 0.00 | 0.00 | 0.00 | 42 | 1013.9 |
| 20260905163004 | 63 | 227 | 1.0 | 4.0 | 0.00 | 0.00 | 0.00 | 42 | 1013.8 |
| 20260905162905 | 63 | 237 | 2.0 | 4.0 | 0.00 | 0.00 | 0.00 | 42 | 1013.8 |
| 20260905162804 | 63 | 233 | 1.0 | 4.0 | 0.00 | 0.00 | 0.00 | 43 | 1013.8 |
| 20260905162306 | 62 | 233 | 2.0 | 4.0 | 0.00 | 0.00 | 0.00 | 43 | 1013.8 |
| 20260905161704 | 62 | 203 | 2.0 | 4.0 | 0.00 | 0.00 | 0.00 | 43 | 1013.9 |
| 20260905161604 | 62 | 205 | 1.0 | 4.0 | 0.00 | 0.00 | 0.00 | 44 | 1013.8 |
| 20260905161504 | 62 | 205 | 1.0 | 4.0 | 0.00 | 0.00 | 0.00 | 44 | 1013.7 |
| 20260905161404 | 62 | 208 | 1.0 | 4.0 | 0.00 | 0.00 | 0.00 | 44 | 1013.7 |
| 20260905161304 | 62 | 0 | 0.0 | 4.0 | 0.00 | 0.00 | 0.00 | 44 | 1013.8 |
| 20260905161205 | 62 | 217 | 1.0 | 4.0 | 0.00 | 0.00 | 0.00 | 44 | 1013.8 |
| 20260905161104 | 62 | 0 | 0.0 | 4.0 | 0.00 | 0.00 | 0.00 | 44 | 1013.7 |
| 20260905161004 | 61 | 0 | 0.0 | 4.0 | 0.00 | 0.00 | 0.00 | 44 | 1013.8 |
| 20260905160904 | 61 | 222 | 1.0 | 4.0 | 0.00 | 0.00 | 0.00 | 43 | 1013.8 |
| 20260905160804 | 61 | 224 | 2.0 | 4.0 | 0.00 | 0.00 | 0.00 | 43 | 1013.8 |
| 20260905160704 | 62 | 225 | 2.0 | 4.0 | 0.00 | 0.00 | 0.00 | 43 | 1013.9 |
| 20260905160604 | 61 | 226 | 2.0 | 4.0 | 0.00 | 0.00 | 0.00 | 43 | 1013.8 |
| 20260905160504 | 61 | 232 | 2.0 | 4.0 | 0.00 | 0.00 | 0.00 | 43 | 1013.8 |
| 20260905160404 | 61 | 241 | 2.0 | 4.0 | 0.00 | 0.00 | 0.00 | 43 | 1013.9 |
| 20260905160305 | 62 | 238 | 2.0 | 4.0 | 0.00 | 0.00 | 0.00 | 44 | 1013.9 |
| 20260905160204 | 62 | 225 | 3.0 | 5.0 | 0.00 | 0.00 | 0.00 | 44 | 1013.8 |
| 20260905160104 | 61 | 216 | 1.0 | 5.0 | 0.00 | 0.00 | 0.00 | 44 | 1013.9 |
| 20260905160005 | 61 | 0 | 0.0 | 5.0 | 0.00 | 0.00 | 0.00 | 44 | 1013.8 |
| 20260905155904 | 61 | 0 | 0.0 | 5.0 | 0.00 | 0.00 | 0.00 | 44 | 1013.8 |
| 20260905155804 | 61 | 232 | 1.0 | 5.0 | 0.00 | 0.00 | 0.00 | 44 | 1014.0 |
| 20260905155705 | 61 | 227 | 1.0 | 5.0 | 0.00 | 0.00 | 0.00 | 44 | 1014.0 |
| 20260905155604 | 61 | 220 | 2.0 | 5.0 | 0.00 | 0.00 | 0.00 | 43 | 1013.8 |
| 20260905155504 | 61 | 200 | 2.0 | 5.0 | 0.00 | 0.00 | 0.00 | 43 | 1013.8 |
| 20260905155405 | 61 | 195 | 1.0 | 5.0 | 0.00 | 0.00 | 0.00 | 44 | 1013.8 |
| 20260905155306 | 61 | 190 | 2.0 | 5.0 | 0.00 | 0.00 | 0.00 | 44 | 1013.9 |
| 20260905155204 | 61 | 183 | 1.0 | 4.0 | 0.00 | 0.00 | 0.00 | 44 | 1013.9 |
| 20260905155104 | 61 | 189 | 1.0 | 4.0 | 0.00 | 0.00 | 0.00 | 45 | 1013.9 |
| 20260905155004 | 61 | 185 | 1.0 | 4.0 | 0.00 | 0.00 | 0.00 | 45 | 1013.8 |
| 20260905154904 | 61 | 176 | 1.0 | 4.0 | 0.00 | 0.00 | 0.00 | 45 | 1013.8 |
| 20260905154803 | 61 | 0 | 0.0 | 4.0 | 0.00 | 0.00 | 0.00 | 45 | 1013.8 |
| 20260905154704 | 61 | 0 | 0.0 | 4.0 | 0.00 | 0.00 | 0.00 | 45 | 1013.9 |
| 20260905154604 | 60 | 193 | 2.0 | 4.0 | 0.00 | 0.00 | 0.00 | 45 | 1014.0 |
| 20260905154504 | 60 | 203 | 2.0 | 4.0 | 0.00 | 0.00 | 0.00 | 45 | 1013.9 |
| 20260905154404 | 60 | 199 | 2.0 | 4.0 | 0.00 | 0.00 | 0.00 | 46 | 1013.9 |
| 20260905154304 | 60 | 211 | 2.0 | 4.0 | 0.00 | 0.00 | 0.00 | 46 | 1014.0 |
| 20260905154204 | 60 | 199 | 1.0 | 4.0 | 0.00 | 0.00 | 0.00 | 46 | 1014.0 |
| 20260905154104 | 60 | 0 | 0.0 | 4.0 | 0.00 | 0.00 | 0.00 | 46 | 1013.9 |
| 20260905154004 | 60 | 195 | 1.0 | 4.0 | 0.00 | 0.00 | 0.00 | 46 | 1014.1 |
| 20260905153904 | 60 | 191 | 2.0 | 4.0 | 0.00 | 0.00 | 0.00 | 47 | 1014.1 |
| 20260905153804 | 60 | 178 | 1.0 | 4.0 | 0.00 | 0.00 | 0.00 | 47 | 1014.0 |
| 20260905153704 | 60 | 0 | 0.0 | 2.0 | 0.00 | 0.00 | 0.00 | 47 | 1013.9 |
| 20260905153604 | 60 | 174 | 1.0 | 2.0 | 0.00 | 0.00 | 0.00 | 47 | 1013.9 |
| 20260905153504 | 60 | 0 | 0.0 | 2.0 | 0.00 | 0.00 | 0.00 | 48 | 1013.9 |
| 20260905153404 | 60 | 0 | 0.0 | 2.0 | 0.00 | 0.00 | 0.00 | 48 | 1013.9 |
| 20260905153305 | 59 | 0 | 0.0 | 2.0 | 0.00 | 0.00 | 0.00 | 48 | 1013.9 |
| 20260905153204 | 59 | 0 | 0.0 | 3.0 | 0.00 | 0.00 | 0.00 | 48 | 1013.9 |
| 20260905153104 | 59 | 178 | 1.0 | 3.0 | 0.00 | 0.00 | 0.00 | 49 | 1013.9 |
| 20260905153004 | 59 | 178 | 1.0 | 3.0 | 0.00 | 0.00 | 0.00 | 49 | 1013.8 |
| 20260905152904 | 59 | 0 | 0.0 | 3.0 | 0.00 | 0.00 | 0.00 | 49 | 1013.9 |
| 20260905152804 | 59 | 187 | 1.0 | 3.0 | 0.00 | 0.00 | 0.00 | 49 | 1013.9 |
| 20260905152704 | 59 | 0 | 0.0 | 3.0 | 0.00 | 0.00 | 0.00 | 49 | 1014.0 |
| 20260905152504 | 58 | 0 | 0.0 | 3.0 | 0.00 | 0.00 | 0.00 | 50 | 1014.0 |
| 20260905152404 | 58 | 0 | 0.0 | 3.0 | 0.00 | 0.00 | 0.00 | 50 | 1014.0 |
| 20260905152306 | 58 | 171 | 2.0 | 3.0 | 0.00 | 0.00 | 0.00 | 50 | 1014.0 |
| 20260905152204 | 58 | 0 | 0.0 | 3.0 | 0.00 | 0.00 | 0.00 | 49 | 1014.0 |
| 20260905152104 | 58 | 168 | 1.0 | 3.0 | 0.00 | 0.00 | 0.00 | 50 | 1013.9 |
| 20260905152004 | 58 | 158 | 1.0 | 4.0 | 0.00 | 0.00 | 0.00 | 50 | 1014.0 |
| 20260905151904 | 58 | 0 | 0.0 | 4.0 | 0.00 | 0.00 | 0.00 | 50 | 1014.0 |
| 20260905151804 | 58 | 138 | 1.0 | 4.0 | 0.00 | 0.00 | 0.00 | 50 | 1014.0 |
| 20260905151704 | 58 | 0 | 0.0 | 4.0 | 0.00 | 0.00 | 0.00 | 50 | 1014.0 |
| 20260905151604 | 58 | 0 | 0.0 | 4.0 | 0.00 | 0.00 | 0.00 | 51 | 1014.0 |
| 20260905151504 | 58 | 0 | 0.0 | 4.0 | 0.00 | 0.00 | 0.00 | 51 | 1014.0 |
| 20260905151404 | 58 | 0 | 0.0 | 4.0 | 0.00 | 0.00 | 0.00 | 52 | 1013.9 |
| 20260905151303 | 57 | 0 | 0.0 | 4.0 | 0.00 | 0.00 | 0.00 | 52 | 1014.0 |
| 20260905151204 | 57 | 0 | 0.0 | 4.0 | 0.00 | 0.00 | 0.00 | 52 | 1014.0 |
| 20260905151104 | 57 | 121 | 2.0 | 4.0 | 0.00 | 0.00 | 0.00 | 52 | 1013.9 |
| 20260905151004 | 57 | 116 | 1.0 | 4.0 | 0.00 | 0.00 | 0.00 | 52 | 1013.9 |
| 20260905150904 | 57 | 115 | 1.0 | 4.0 | 0.00 | 0.00 | 0.00 | 53 | 1014.1 |
| 20260905150804 | 57 | 0 | 0.0 | 4.0 | 0.00 | 0.00 | 0.00 | 53 | 1014.0 |
| 20260905150704 | 56 | 0 | 0.0 | 4.0 | 0.00 | 0.00 | 0.00 | 53 | 1013.9 |
| 20260905150604 | 56 | 114 | 2.0 | 4.0 | 0.00 | 0.00 | 0.00 | 53 | 1013.9 |
| 20260905150504 | 56 | 118 | 1.0 | 4.0 | 0.00 | 0.00 | 0.00 | 54 | 1014.0 |
| 20260905150404 | 56 | 0 | 0.0 | 4.0 | 0.00 | 0.00 | 0.00 | 55 | 1014.0 |
| 20260905150304 | 56 | 0 | 0.0 | 4.0 | 0.00 | 0.00 | 0.00 | 55 | 1014.1 |
| 20260905150204 | 56 | 125 | 1.0 | 4.0 | 0.00 | 0.00 | 0.00 | 55 | 1014.0 |
| 20260905150104 | 55 | 128 | 1.0 | 4.0 | 0.00 | 0.00 | 0.00 | 56 | 1013.9 |
| 20260905150004 | 55 | 0 | 0.0 | 4.0 | 0.00 | 0.00 | 0.00 | 56 | 1014.0 |
| 20260905145904 | 55 | 136 | 1.0 | 4.0 | 0.00 | 0.00 | 0.00 | 56 | 1014.1 |
| 20260905145704 | 55 | 138 | 1.0 | 4.0 | 0.00 | 0.00 | 0.00 | 57 | 1014.1 |
| 20260905145604 | 54 | 138 | 1.0 | 4.0 | 0.00 | 0.00 | 0.00 | 57 | 1014.1 |
| 20260905145505 | 54 | 147 | 1.0 | 3.0 | 0.00 | 0.00 | 0.00 | 58 | 1014.1 |
| 20260905145404 | 54 | 160 | 1.0 | 2.0 | 0.00 | 0.00 | 0.00 | 58 | 1014.1 |
| 20260905145306 | 54 | 0 | 0.0 | 2.0 | 0.00 | 0.00 | 0.00 | 59 | 1014.1 |
| 20260905145204 | 54 | 0 | 0.0 | 2.0 | 0.00 | 0.00 | 0.00 | 59 | 1014.2 |
| 20260905145104 | 53 | 0 | 0.0 | 3.0 | 0.00 | 0.00 | 0.00 | 59 | 1014.2 |
| 20260905145005 | 53 | 0 | 0.0 | 3.0 | 0.00 | 0.00 | 0.00 | 60 | 1014.1 |
| 20260905144904 | 53 | 0 | 0.0 | 3.0 | 0.00 | 0.00 | 0.00 | 60 | 1014.1 |
| 20260905144804 | 53 | 0 | 0.0 | 3.0 | 0.00 | 0.00 | 0.00 | 60 | 1014.0 |
| 20260905144404 | 52 | 0 | 0.0 | 3.0 | 0.00 | 0.00 | 0.00 | 61 | 1014.2 |
| 20260905144304 | 52 | 125 | 1.0 | 3.0 | 0.00 | 0.00 | 0.00 | 61 | 1014.1 |
| 20260905144204 | 51 | 119 | 1.0 | 3.0 | 0.00 | 0.00 | 0.00 | 61 | 1014.2 |
| 20260905144104 | 51 | 128 | 1.0 | 3.0 | 0.00 | 0.00 | 0.00 | 61 | 1014.1 |
| 20260905144004 | 51 | 128 | 1.0 | 3.0 | 0.00 | 0.00 | 0.00 | 62 | 1014.2 |
| 20260905143905 | 51 | 0 | 0.0 | 3.0 | 0.00 | 0.00 | 0.00 | 62 | 1014.2 |
| 20260905143804 | 51 | 0 | 0.0 | 3.0 | 0.00 | 0.00 | 0.00 | 62 | 1014.2 |
| 20260905143704 | 51 | 0 | 0.0 | 3.0 | 0.00 | 0.00 | 0.00 | 62 | 1014.2 |
| 20260905143604 | 51 | 0 | 0.0 | 3.0 | 0.00 | 0.00 | 0.00 | 63 | 1014.1 |
| 20260905143504 | 51 | 0 | 0.0 | 3.0 | 0.00 | 0.00 | 0.00 | 63 | 1014.2 |
| 20260905143404 | 50 | 0 | 0.0 | 3.0 | 0.00 | 0.00 | 0.00 | 63 | 1014.1 |
| 20260905142904 | 49 | 0 | 0.0 | 2.0 | 0.00 | 0.00 | 0.00 | 67 | 1014.2 |
| 20260905142803 | 49 | 0 | 0.0 | 2.0 | 0.00 | 0.00 | 0.00 | 68 | 1014.1 |
| 20260905142704 | 49 | 0 | 0.0 | 2.0 | 0.00 | 0.00 | 0.00 | 68 | 1014.1 |
| 20260905142604 | 48 | 0 | 0.0 | 2.0 | 0.00 | 0.00 | 0.00 | 69 | 1014.1 |
| 20260905142504 | 48 | 0 | 0.0 | 2.0 | 0.00 | 0.00 | 0.00 | 69 | 1014.1 |
| 20260905142404 | 48 | 0 | 0.0 | 2.0 | 0.00 | 0.00 | 0.00 | 70 | 1014.0 |
| 20260905142306 | 47 | 0 | 0.0 | 2.0 | 0.00 | 0.00 | 0.00 | 70 | 1014.0 |
| 20260905142204 | 47 | 0 | 0.0 | 2.0 | 0.00 | 0.00 | 0.00 | 70 | 1014.0 |
| 20260905142104 | 47 | 0 | 0.0 | 2.0 | 0.00 | 0.00 | 0.00 | 70 | 1014.1 |
| 20260905142004 | 46 | 0 | 0.0 | 2.0 | 0.00 | 0.00 | 0.00 | 70 | 1014.0 |
| 20260905141904 | 46 | 0 | 0.0 | 1.0 | 0.00 | 0.00 | 0.00 | 71 | 1014.1 |
| 20260905141804 | 46 | 0 | 0.0 | 1.0 | 0.00 | 0.00 | 0.00 | 71 | 1014.0 |
| 20260905141704 | 46 | 0 | 0.0 | 1.0 | 0.00 | 0.00 | 0.00 | 71 | 1014.0 |
| 20260905141604 | 45 | 0 | 0.0 | 1.0 | 0.00 | 0.00 | 0.00 | 71 | 1014.0 |
| 20260905141504 | 45 | 0 | 0.0 | 1.0 | 0.00 | 0.00 | 0.00 | 71 | 1014.1 |
| 20260905141404 | 45 | 0 | 0.0 | 1.0 | 0.00 | 0.00 | 0.00 | 71 | 1014.0 |
| 20260905141304 | 44 | 0 | 0.0 | 1.0 | 0.00 | 0.00 | 0.00 | 73 | 1014.0 |
| 20260905141204 | 44 | 0 | 0.0 | 2.0 | 0.00 | 0.00 | 0.00 | 73 | 1013.9 |
| 20260905141104 | 44 | 0 | 0.0 | 2.0 | 0.00 | 0.00 | 0.00 | 73 | 1013.9 |
| 20260905141004 | 44 | 0 | 0.0 | 2.0 | 0.00 | 0.00 | 0.00 | 73 | 1013.9 |
| 20260905140904 | 44 | 0 | 0.0 | 2.0 | 0.00 | 0.00 | 0.00 | 73 | 1013.9 |
| 20260905140404 | 43 | 0 | 0.0 | 2.0 | 0.00 | 0.00 | 0.00 | 74 | 1013.8 |
| 20260905140303 | 43 | 96 | 1.0 | 2.0 | 0.00 | 0.00 | 0.00 | 74 | 1013.9 |
| 20260905140205 | 42 | 92 | 2.0 | 2.0 | 0.00 | 0.00 | 0.00 | 74 | 1013.8 |
| 20260905140104 | 42 | 92 | 1.0 | 2.0 | 0.00 | 0.00 | 0.00 | 74 | 1013.7 |
| 20260905140004 | 42 | 0 | 0.0 | 2.0 | 0.00 | 0.00 | 0.00 | 74 | 1013.8 |
| 20260905135903 | 42 | 0 | 0.0 | 2.0 | 0.00 | 0.00 | 0.00 | 74 | 1013.7 |
| 20260905135804 | 42 | 0 | 0.0 | 2.0 | 0.00 | 0.00 | 0.00 | 74 | 1013.8 |
| 20260905135704 | 42 | 90 | 2.0 | 2.0 | 0.00 | 0.00 | 0.00 | 74 | 1013.7 |
| 20260905135604 | 41 | 90 | 2.0 | 2.0 | 0.00 | 0.00 | 0.00 | 74 | 1013.7 |
| 20260905135504 | 41 | 90 | 1.0 | 2.0 | 0.00 | 0.00 | 0.00 | 74 | 1013.7 |
| 20260905135404 | 41 | 0 | 0.0 | 2.0 | 0.00 | 0.00 | 0.00 | 74 | 1013.6 |
| 20260905135203 | 41 | 98 | 1.0 | 2.0 | 0.00 | 0.00 | 0.00 | 75 | 1013.7 |
| 20260905135104 | 41 | 124 | 2.0 | 3.0 | 0.00 | 0.00 | 0.00 | 74 | 1013.7 |
| 20260905135004 | 41 | 0 | 0.0 | 3.0 | 0.00 | 0.00 | 0.00 | 74 | 1013.6 |
| 20260905134904 | 41 | 0 | 0.0 | 3.0 | 0.00 | 0.00 | 0.00 | 74 | 1013.8 |
| 20260905134804 | 41 | 0 | 0.0 | 3.0 | 0.00 | 0.00 | 0.00 | 74 | 1013.6 |
| 20260905134704 | 41 | 0 | 0.0 | 3.0 | 0.00 | 0.00 | 0.00 | 74 | 1013.7 |
| 20260905134604 | 41 | 0 | 0.0 | 3.0 | 0.00 | 0.00 | 0.00 | 74 | 1013.6 |
| 20260905134504 | 41 | 0 | 0.0 | 3.0 | 0.00 | 0.00 | 0.00 | 74 | 1013.7 |
| 20260905134404 | 41 | 169 | 1.0 | 3.0 | 0.00 | 0.00 | 0.00 | 74 | 1013.6 |
| 20260905134304 | 41 | 0 | 0.0 | 3.0 | 0.00 | 0.00 | 0.00 | 74 | 1013.8 |
| 20260905134205 | 41 | 0 | 0.0 | 3.0 | 0.00 | 0.00 | 0.00 | 74 | 1013.6 |
| 20260905134104 | 41 | 160 | 1.0 | 3.0 | 0.00 | 0.00 | 0.00 | 74 | 1013.6 |
| 20260905134004 | 41 | 0 | 0.0 | 3.0 | 0.00 | 0.00 | 0.00 | 74 | 1013.7 |
| 20260905133905 | 41 | 0 | 0.0 | 3.0 | 0.00 | 0.00 | 0.00 | 74 | 1013.6 |
| 20260905133804 | 41 | 0 | 0.0 | 3.0 | 0.00 | 0.00 | 0.00 | 74 | 1013.7 |
| 20260905133704 | 41 | 0 | 0.0 | 3.0 | 0.00 | 0.00 | 0.00 | 74 | 1013.7 |
| 20260905133605 | 41 | 147 | 1.0 | 3.0 | 0.00 | 0.00 | 0.00 | 74 | 1013.7 |
| 20260905133504 | 41 | 0 | 0.0 | 2.0 | 0.00 | 0.00 | 0.00 | 74 | 1013.7 |
| 20260905133004 | 41 | 0 | 0.0 | 2.0 | 0.00 | 0.00 | 0.00 | 74 | 1013.6 |
| 20260905132904 | 41 | 0 | 0.0 | 3.0 | 0.00 | 0.00 | 0.00 | 73 | 1013.6 |
| 20260905132804 | 41 | 0 | 0.0 | 3.0 | 0.00 | 0.00 | 0.00 | 73 | 1013.6 |
| 20260905132704 | 41 | 0 | 0.0 | 3.0 | 0.00 | 0.00 | 0.00 | 73 | 1013.6 |
| 20260905132604 | 41 | 0 | 0.0 | 3.0 | 0.00 | 0.00 | 0.00 | 73 | 1013.6 |
| 20260905132504 | 41 | 0 | 0.0 | 3.0 | 0.00 | 0.00 | 0.00 | 73 | 1013.6 |
| 20260905132104 | 41 | 0 | 0.0 | 4.0 | 0.00 | 0.00 | 0.00 | 73 | 1013.5 |
| 20260905132004 | 41 | 93 | 2.0 | 4.0 | 0.00 | 0.00 | 0.00 | 73 | 1013.5 |
| 20260905131904 | 41 | 90 | 2.0 | 4.0 | 0.00 | 0.00 | 0.00 | 73 | 1013.5 |
| 20260905131703 | 41 | 90 | 2.0 | 4.0 | 0.00 | 0.00 | 0.00 | 73 | 1013.5 |
| 20260905131604 | 40 | 90 | 2.0 | 4.0 | 0.00 | 0.00 | 0.00 | 72 | 1013.5 |
| 20260905131504 | 40 | 90 | 2.0 | 4.0 | 0.00 | 0.00 | 0.00 | 72 | 1013.4 |
| 20260905131404 | 41 | 90 | 2.0 | 4.0 | 0.00 | 0.00 | 0.00 | 72 | 1013.4 |
| 20260905131304 | 40 | 90 | 3.0 | 4.0 | 0.00 | 0.00 | 0.00 | 72 | 1013.4 |
| 20260905131204 | 40 | 90 | 3.0 | 4.0 | 0.00 | 0.00 | 0.00 | 72 | 1013.5 |
| 20260905131104 | 40 | 90 | 2.0 | 3.0 | 0.00 | 0.00 | 0.00 | 71 | 1013.5 |
| 20260905131004 | 40 | 90 | 2.0 | 3.0 | 0.00 | 0.00 | 0.00 | 71 | 1013.4 |
| 20260905130904 | 40 | 90 | 2.0 | 3.0 | 0.00 | 0.00 | 0.00 | 71 | 1013.4 |
| 20260905130805 | 40 | 90 | 1.0 | 2.0 | 0.00 | 0.00 | 0.00 | 71 | 1013.4 |
| 20260905130704 | 40 | 90 | 1.0 | 3.0 | 0.00 | 0.00 | 0.00 | 72 | 1013.4 |
| 20260905130604 | 40 | 90 | 1.0 | 3.0 | 0.00 | 0.00 | 0.00 | 72 | 1013.3 |
| 20260905130504 | 40 | 0 | 0.0 | 3.0 | 0.00 | 0.00 | 0.00 | 72 | 1013.3 |
| 20260905130404 | 40 | 90 | 1.0 | 3.0 | 0.00 | 0.00 | 0.00 | 72 | 1013.4 |
| 20260905130304 | 40 | 90 | 1.0 | 3.0 | 0.00 | 0.00 | 0.00 | 72 | 1013.4 |
| 20260905130204 | 40 | 90 | 1.0 | 3.0 | 0.00 | 0.00 | 0.00 | 72 | 1013.4 |
| 20260905130104 | 40 | 90 | 1.0 | 3.0 | 0.00 | 0.00 | 0.00 | 72 | 1013.3 |
| 20260905130004 | 40 | 90 | 2.0 | 3.0 | 0.00 | 0.00 | 0.00 | 72 | 1013.3 |
| 20260905125904 | 40 | 90 | 2.0 | 3.0 | 0.00 | 0.00 | 0.00 | 72 | 1013.3 |
| 20260905125804 | 40 | 90 | 2.0 | 3.0 | 0.00 | 0.00 | 0.00 | 72 | 1013.4 |
| 20260905125704 | 40 | 90 | 2.0 | 3.0 | 0.00 | 0.00 | 0.00 | 71 | 1013.3 |
| 20260905125604 | 40 | 90 | 2.0 | 3.0 | 0.00 | 0.00 | 0.00 | 71 | 1013.4 |
| 20260905125504 | 40 | 90 | 2.0 | 3.0 | 0.00 | 0.00 | 0.00 | 71 | 1013.3 |
| 20260905125404 | 40 | 90 | 2.0 | 3.0 | 0.00 | 0.00 | 0.00 | 71 | 1013.4 |
| 20260905125306 | 40 | 90 | 2.0 | 3.0 | 0.00 | 0.00 | 0.00 | 70 | 1013.4 |
| 20260905125204 | 40 | 90 | 2.0 | 3.0 | 0.00 | 0.00 | 0.00 | 70 | 1013.4 |
| 20260905125104 | 40 | 95 | 2.0 | 3.0 | 0.00 | 0.00 | 0.00 | 69 | 1013.3 |
| 20260905125004 | 40 | 106 | 2.0 | 3.0 | 0.00 | 0.00 | 0.00 | 69 | 1013.3 |
| 20260905124904 | 40 | 105 | 2.0 | 4.0 | 0.00 | 0.00 | 0.00 | 69 | 1013.3 |
| 20260905124804 | 40 | 104 | 1.0 | 4.0 | 0.00 | 0.00 | 0.00 | 69 | 1013.4 |
| 20260905124704 | 40 | 105 | 1.0 | 4.0 | 0.00 | 0.00 | 0.00 | 69 | 1013.3 |
| 20260905124603 | 40 | 108 | 1.0 | 4.0 | 0.00 | 0.00 | 0.00 | 69 | 1013.3 |
| 20260905124504 | 41 | 113 | 1.0 | 4.0 | 0.00 | 0.00 | 0.00 | 69 | 1013.4 |
| 20260905124304 | 41 | 0 | 0.0 | 4.0 | 0.00 | 0.00 | 0.00 | 70 | 1013.3 |
| 20260905124204 | 41 | 0 | 0.0 | 4.0 | 0.00 | 0.00 | 0.00 | 70 | 1013.3 |
| 20260905124104 | 41 | 0 | 0.0 | 4.0 | 0.00 | 0.00 | 0.00 | 70 | 1013.3 |
| 20260905124004 | 41 | 97 | 2.0 | 4.0 | 0.00 | 0.00 | 0.00 | 70 | 1013.3 |
| 20260905123904 | 41 | 103 | 2.0 | 3.0 | 0.00 | 0.00 | 0.00 | 70 | 1013.3 |
| 20260905123804 | 41 | 0 | 0.0 | 3.0 | 0.00 | 0.00 | 0.00 | 70 | 1013.3 |
| 20260905123304 | 42 | 0 | 0.0 | 3.0 | 0.00 | 0.00 | 0.00 | 70 | 1013.3 |
| 20260905123104 | 42 | 0 | 0.0 | 2.0 | 0.00 | 0.00 | 0.00 | 72 | 1013.3 |
| 20260905123004 | 42 | 0 | 0.0 | 2.0 | 0.00 | 0.00 | 0.00 | 73 | 1013.3 |
| 20260905122904 | 42 | 0 | 0.0 | 2.0 | 0.00 | 0.00 | 0.00 | 73 | 1013.3 |
| 20260905122804 | 42 | 0 | 0.0 | 2.0 | 0.00 | 0.00 | 0.00 | 73 | 1013.3 |
| 20260905122704 | 42 | 0 | 0.0 | 2.0 | 0.00 | 0.00 | 0.00 | 72 | 1013.3 |
| 20260905122604 | 42 | 0 | 0.0 | 2.0 | 0.00 | 0.00 | 0.00 | 72 | 1013.3 |
| 20260905122504 | 42 | 0 | 0.0 | 2.0 | 0.00 | 0.00 | 0.00 | 72 | 1013.3 |
| 20260905122404 | 42 | 0 | 0.0 | 1.0 | 0.00 | 0.00 | 0.00 | 71 | 1013.3 |
| 20260905122306 | 42 | 0 | 0.0 | 0.0 | 0.00 | 0.00 | 0.00 | 71 | 1013.2 |
| 20260905122204 | 42 | 0 | 0.0 | 0.0 | 0.00 | 0.00 | 0.00 | 71 | 1013.3 |
| 20260905122003 | 42 | 0 | 0.0 | 0.0 | 0.00 | 0.00 | 0.00 | 71 | 1013.3 |
| 20260905121904 | 42 | 0 | 0.0 | 1.0 | 0.00 | 0.00 | 0.00 | 71 | 1013.3 |
| 20260905121804 | 42 | 0 | 0.0 | 1.0 | 0.00 | 0.00 | 0.00 | 71 | 1013.3 |
| 20260905121704 | 42 | 0 | 0.0 | 2.0 | 0.00 | 0.00 | 0.00 | 72 | 1013.3 |
| 20260905121603 | 42 | 0 | 0.0 | 2.0 | 0.00 | 0.00 | 0.00 | 71 | 1013.5 |
| 20260905121504 | 42 | 0 | 0.0 | 2.0 | 0.00 | 0.00 | 0.00 | 71 | 1013.4 |
| 20260905121404 | 42 | 0 | 0.0 | 2.0 | 0.00 | 0.00 | 0.00 | 70 | 1013.5 |
| 20260905121304 | 42 | 0 | 0.0 | 2.0 | 0.00 | 0.00 | 0.00 | 70 | 1013.5 |
| 20260905121204 | 42 | 0 | 0.0 | 2.0 | 0.00 | 0.00 | 0.00 | 69 | 1013.4 |
| 20260905121104 | 42 | 0 | 0.0 | 2.0 | 0.00 | 0.00 | 0.00 | 69 | 1013.4 |
| 20260905121005 | 42 | 0 | 0.0 | 2.0 | 0.00 | 0.00 | 0.00 | 69 | 1013.5 |
| 20260905120404 | 42 | 0 | 0.0 | 2.0 | 0.00 | 0.00 | 0.00 | 69 | 1013.5 |
| 20260905120304 | 42 | 0 | 0.0 | 2.0 | 0.00 | 0.00 | 0.00 | 69 | 1013.4 |
| 20260905120204 | 42 | 0 | 0.0 | 2.0 | 0.00 | 0.00 | 0.00 | 69 | 1013.3 |
| 20260905120104 | 42 | 0 | 0.0 | 2.0 | 0.00 | 0.00 | 0.00 | 69 | 1013.4 |
| 20260905120004 | 42 | 0 | 0.0 | 2.0 | 0.00 | 0.00 | 0.00 | 69 | 1013.5 |
| 20260905115904 | 42 | 0 | 0.0 | 2.0 | 0.00 | 0.00 | 0.00 | 69 | 1013.5 |
| 20260905115804 | 42 | 125 | 1.0 | 2.0 | 0.00 | 0.00 | 0.00 | 69 | 1013.4 |
| 20260905115704 | 42 | 107 | 1.0 | 2.0 | 0.00 | 0.00 | 0.00 | 68 | 1013.4 |
| 20260905115603 | 42 | 0 | 0.0 | 2.0 | 0.00 | 0.00 | 0.00 | 68 | 1013.4 |
| 20260905115504 | 42 | 0 | 0.0 | 2.0 | 0.00 | 0.00 | 0.00 | 68 | 1013.4 |
| 20260905115404 | 42 | 89 | 1.0 | 2.0 | 0.00 | 0.00 | 0.00 | 67 | 1013.4 |
| 20260905115306 | 42 | 86 | 1.0 | 2.0 | 0.00 | 0.00 | 0.00 | 68 | 1013.4 |
| 20260905115204 | 42 | 0 | 0.0 | 2.0 | 0.00 | 0.00 | 0.00 | 68 | 1013.3 |
| 20260905115104 | 42 | 0 | 0.0 | 2.0 | 0.00 | 0.00 | 0.00 | 68 | 1013.3 |
| 20260905115004 | 42 | 0 | 0.0 | 2.0 | 0.00 | 0.00 | 0.00 | 67 | 1013.4 |
| 20260905114904 | 42 | 101 | 1.0 | 2.0 | 0.00 | 0.00 | 0.00 | 67 | 1013.4 |
| 20260905114805 | 43 | 107 | 1.0 | 2.0 | 0.00 | 0.00 | 0.00 | 68 | 1013.4 |
| 20260905114604 | 43 | 0 | 0.0 | 2.0 | 0.00 | 0.00 | 0.00 | 69 | 1013.3 |
| 20260905114504 | 43 | 0 | 0.0 | 2.0 | 0.00 | 0.00 | 0.00 | 69 | 1013.3 |
| 20260905114404 | 42 | 0 | 0.0 | 2.0 | 0.00 | 0.00 | 0.00 | 69 | 1013.4 |
| 20260905114304 | 42 | 0 | 0.0 | 2.0 | 0.00 | 0.00 | 0.00 | 69 | 1013.4 |
| 20260905114204 | 42 | 0 | 0.0 | 2.0 | 0.00 | 0.00 | 0.00 | 68 | 1013.3 |
| 20260905114104 | 42 | 0 | 0.0 | 2.0 | 0.00 | 0.00 | 0.00 | 68 | 1013.3 |
| 20260905114004 | 42 | 0 | 0.0 | 2.0 | 0.00 | 0.00 | 0.00 | 67 | 1013.3 |
| 20260905113904 | 42 | 0 | 0.0 | 2.0 | 0.00 | 0.00 | 0.00 | 67 | 1013.3 |
| 20260905113803 | 42 | 0 | 0.0 | 2.0 | 0.00 | 0.00 | 0.00 | 67 | 1013.2 |
| 20260905113704 | 42 | 0 | 0.0 | 2.0 | 0.00 | 0.00 | 0.00 | 66 | 1013.3 |
| 20260905113604 | 42 | 0 | 0.0 | 2.0 | 0.00 | 0.00 | 0.00 | 65 | 1013.3 |
| 20260905113004 | 43 | 0 | 0.0 | 2.0 | 0.00 | 0.00 | 0.00 | 67 | 1013.1 |
| 20260905112904 | 43 | 0 | 0.0 | 2.0 | 0.00 | 0.00 | 0.00 | 67 | 1013.3 |
| 20260905112803 | 43 | 0 | 0.0 | 2.0 | 0.00 | 0.00 | 0.00 | 68 | 1013.3 |
| 20260905112704 | 43 | 0 | 0.0 | 2.0 | 0.00 | 0.00 | 0.00 | 69 | 1013.4 |
| 20260905112604 | 43 | 0 | 0.0 | 2.0 | 0.00 | 0.00 | 0.00 | 69 | 1013.4 |
| 20260905112504 | 43 | 0 | 0.0 | 2.0 | 0.00 | 0.00 | 0.00 | 68 | 1013.3 |
| 20260905112403 | 42 | 0 | 0.0 | 2.0 | 0.00 | 0.00 | 0.00 | 67 | 1013.3 |
| 20260905112306 | 42 | 0 | 0.0 | 2.0 | 0.00 | 0.00 | 0.00 | 66 | 1013.3 |
| 20260905112204 | 42 | 136 | 1.0 | 2.0 | 0.00 | 0.00 | 0.00 | 66 | 1013.3 |
| 20260905112104 | 42 | 138 | 1.0 | 2.0 | 0.00 | 0.00 | 0.00 | 67 | 1013.2 |
| 20260905112004 | 42 | 0 | 0.0 | 2.0 | 0.00 | 0.00 | 0.00 | 67 | 1013.2 |
| 20260905111904 | 42 | 139 | 1.0 | 2.0 | 0.00 | 0.00 | 0.00 | 66 | 1013.2 |
| 20260905111804 | 42 | 139 | 1.0 | 2.0 | 0.00 | 0.00 | 0.00 | 66 | 1013.2 |
| 20260905111704 | 42 | 141 | 1.0 | 2.0 | 0.00 | 0.00 | 0.00 | 65 | 1013.3 |
| 20260905111604 | 42 | 0 | 0.0 | 2.0 | 0.00 | 0.00 | 0.00 | 64 | 1013.3 |
| 20260905111504 | 42 | 0 | 0.0 | 2.0 | 0.00 | 0.00 | 0.00 | 64 | 1013.3 |
| 20260905111404 | 42 | 140 | 1.0 | 2.0 | 0.00 | 0.00 | 0.00 | 63 | 1013.2 |
| 20260905111304 | 42 | 0 | 0.0 | 2.0 | 0.00 | 0.00 | 0.00 | 63 | 1013.2 |
| 20260905111204 | 42 | 135 | 1.0 | 2.0 | 0.00 | 0.00 | 0.00 | 62 | 1013.2 |
| 20260905111104 | 42 | 0 | 0.0 | 2.0 | 0.00 | 0.00 | 0.00 | 62 | 1013.2 |
| 20260905111004 | 42 | 0 | 0.0 | 0.0 | 0.00 | 0.00 | 0.00 | 62 | 1013.3 |
| 20260905110904 | 42 | 0 | 0.0 | 0.0 | 0.00 | 0.00 | 0.00 | 62 | 1013.2 |
| 20260905110804 | 43 | 0 | 0.0 | 0.0 | 0.00 | 0.00 | 0.00 | 62 | 1013.2 |
| 20260905110704 | 43 | 0 | 0.0 | 0.0 | 0.00 | 0.00 | 0.00 | 63 | 1013.2 |
| 20260905110603 | 43 | 0 | 0.0 | 0.0 | 0.00 | 0.00 | 0.00 | 63 | 1013.2 |
| 20260905110504 | 43 | 0 | 0.0 | 0.0 | 0.00 | 0.00 | 0.00 | 63 | 1013.2 |
| 20260905110404 | 43 | 0 | 0.0 | 0.0 | 0.00 | 0.00 | 0.00 | 63 | 1013.1 |
| 20260905110304 | 43 | 0 | 0.0 | 0.0 | 0.00 | 0.00 | 0.00 | 63 | 1013.1 |
| 20260905110203 | 43 | 0 | 0.0 | 1.0 | 0.00 | 0.00 | 0.00 | 63 | 1013.2 |
| 20260905110104 | 43 | 0 | 0.0 | 2.0 | 0.00 | 0.00 | 0.00 | 63 | 1013.1 |
| 20260905110004 | 43 | 0 | 0.0 | 2.0 | 0.00 | 0.00 | 0.00 | 63 | 1013.1 |
| 20260905105904 | 43 | 0 | 0.0 | 2.0 | 0.00 | 0.00 | 0.00 | 63 | 1013.1 |
| 20260905105804 | 43 | 0 | 0.0 | 2.0 | 0.00 | 0.00 | 0.00 | 64 | 1013.1 |
| 20260905105703 | 44 | 0 | 0.0 | 2.0 | 0.00 | 0.00 | 0.00 | 64 | 1013.2 |
| 20260905105504 | 44 | 0 | 0.0 | 2.0 | 0.00 | 0.00 | 0.00 | 64 | 1013.1 |
| 20260905105404 | 44 | 0 | 0.0 | 2.0 | 0.00 | 0.00 | 0.00 | 64 | 1013.0 |
| 20260905105306 | 44 | 0 | 0.0 | 2.0 | 0.00 | 0.00 | 0.00 | 64 | 1013.1 |
| 20260905105203 | 44 | 0 | 0.0 | 2.0 | 0.00 | 0.00 | 0.00 | 64 | 1013.1 |
| 20260905105104 | 44 | 0 | 0.0 | 2.0 | 0.00 | 0.00 | 0.00 | 64 | 1013.1 |
| 20260905105004 | 44 | 0 | 0.0 | 2.0 | 0.00 | 0.00 | 0.00 | 63 | 1013.1 |
| 20260905104904 | 44 | 0 | 0.0 | 2.0 | 0.00 | 0.00 | 0.00 | 63 | 1013.1 |
| 20260905104804 | 44 | 0 | 0.0 | 2.0 | 0.00 | 0.00 | 0.00 | 62 | 1013.3 |
| 20260905104704 | 44 | 0 | 0.0 | 2.0 | 0.00 | 0.00 | 0.00 | 62 | 1013.1 |
| 20260905104604 | 44 | 0 | 0.0 | 2.0 | 0.00 | 0.00 | 0.00 | 62 | 1013.1 |
| 20260905104004 | 45 | 0 | 0.0 | 2.0 | 0.00 | 0.00 | 0.00 | 62 | 1013.0 |
| 20260905103903 | 45 | 0 | 0.0 | 2.0 | 0.00 | 0.00 | 0.00 | 62 | 1013.1 |
| 20260905103803 | 45 | 0 | 0.0 | 2.0 | 0.00 | 0.00 | 0.00 | 62 | 1013.0 |
| 20260905103704 | 45 | 0 | 0.0 | 2.0 | 0.00 | 0.00 | 0.00 | 63 | 1013.0 |
| 20260905103604 | 45 | 0 | 0.0 | 2.0 | 0.00 | 0.00 | 0.00 | 63 | 1013.1 |
| 20260905103504 | 45 | 0 | 0.0 | 2.0 | 0.00 | 0.00 | 0.00 | 62 | 1013.0 |
| 20260905103404 | 45 | 0 | 0.0 | 2.0 | 0.00 | 0.00 | 0.00 | 61 | 1013.1 |
| 20260905103304 | 46 | 0 | 0.0 | 2.0 | 0.00 | 0.00 | 0.00 | 61 | 1013.0 |
| 20260905103204 | 46 | 0 | 0.0 | 2.0 | 0.00 | 0.00 | 0.00 | 62 | 1013.1 |
| 20260905103104 | 46 | 0 | 0.0 | 2.0 | 0.00 | 0.00 | 0.00 | 62 | 1013.1 |
| 20260905103003 | 46 | 0 | 0.0 | 2.0 | 0.00 | 0.00 | 0.00 | 63 | 1013.1 |
| 20260905102903 | 46 | 0 | 0.0 | 2.0 | 0.00 | 0.00 | 0.00 | 63 | 1013.0 |
| 20260905102804 | 46 | 0 | 0.0 | 2.0 | 0.00 | 0.00 | 0.00 | 63 | 1013.2 |
| 20260905102704 | 46 | 0 | 0.0 | 2.0 | 0.00 | 0.00 | 0.00 | 63 | 1013.1 |
| 20260905102604 | 46 | 0 | 0.0 | 2.0 | 0.00 | 0.00 | 0.00 | 64 | 1012.9 |
| 20260905102503 | 46 | 0 | 0.0 | 2.0 | 0.00 | 0.00 | 0.00 | 64 | 1013.0 |
| 20260905102404 | 46 | 0 | 0.0 | 2.0 | 0.00 | 0.00 | 0.00 | 64 | 1013.0 |
| 20260905102306 | 46 | 139 | 1.0 | 2.0 | 0.00 | 0.00 | 0.00 | 64 | 1013.1 |
| 20260905102204 | 46 | 135 | 1.0 | 2.0 | 0.00 | 0.00 | 0.00 | 64 | 1013.1 |
| 20260905102104 | 46 | 135 | 1.0 | 2.0 | 0.00 | 0.00 | 0.00 | 64 | 1013.0 |
| 20260905102004 | 46 | 135 | 1.0 | 2.0 | 0.00 | 0.00 | 0.00 | 63 | 1013.0 |
| 20260905101904 | 46 | 135 | 1.0 | 2.0 | 0.00 | 0.00 | 0.00 | 63 | 1012.9 |
| 20260905101404 | 46 | 0 | 0.0 | 2.0 | 0.00 | 0.00 | 0.00 | 62 | 1013.0 |
| 20260905101304 | 46 | 0 | 0.0 | 2.0 | 0.00 | 0.00 | 0.00 | 62 | 1013.1 |
| 20260905101204 | 46 | 0 | 0.0 | 2.0 | 0.00 | 0.00 | 0.00 | 63 | 1013.0 |
| 20260905101103 | 47 | 0 | 0.0 | 2.0 | 0.00 | 0.00 | 0.00 | 63 | 1013.0 |
| 20260905101004 | 47 | 0 | 0.0 | 2.0 | 0.00 | 0.00 | 0.00 | 63 | 1013.0 |
| 20260905100904 | 47 | 0 | 0.0 | 2.0 | 0.00 | 0.00 | 0.00 | 62 | 1013.2 |
| 20260905100805 | 47 | 0 | 0.0 | 1.0 | 0.00 | 0.00 | 0.00 | 61 | 1013.1 |
| 20260905100204 | 48 | 0 | 0.0 | 2.0 | 0.00 | 0.00 | 0.00 | 62 | 1013.0 |
| 20260905100104 | 48 | 0 | 0.0 | 2.0 | 0.00 | 0.00 | 0.00 | 62 | 1012.9 |
| 20260905100004 | 48 | 0 | 0.0 | 2.0 | 0.00 | 0.00 | 0.00 | 62 | 1013.0 |
| 20260905095904 | 48 | 0 | 0.0 | 2.0 | 0.00 | 0.00 | 0.00 | 62 | 1013.0 |
| 20260905095804 | 48 | 0 | 0.0 | 2.0 | 0.00 | 0.00 | 0.00 | 61 | 1013.0 |
| 20260905095704 | 48 | 0 | 0.0 | 2.0 | 0.00 | 0.00 | 0.00 | 61 | 1012.9 |
| 20260905095603 | 48 | 138 | 1.0 | 2.0 | 0.00 | 0.00 | 0.00 | 61 | 1012.9 |
| 20260905095504 | 48 | 135 | 1.0 | 2.0 | 0.00 | 0.00 | 0.00 | 60 | 1013.0 |
| 20260905095404 | 48 | 135 | 1.0 | 2.0 | 0.00 | 0.00 | 0.00 | 60 | 1013.0 |
| 20260905095306 | 48 | 135 | 1.0 | 2.0 | 0.00 | 0.00 | 0.00 | 60 | 1013.0 |
| 20260905095203 | 48 | 0 | 0.0 | 2.0 | 0.00 | 0.00 | 0.00 | 59 | 1012.8 |
| 20260905095104 | 48 | 0 | 0.0 | 2.0 | 0.00 | 0.00 | 0.00 | 59 | 1012.9 |
| 20260905094604 | 49 | 0 | 0.0 | 2.0 | 0.00 | 0.00 | 0.00 | 59 | 1012.8 |
| 20260905094504 | 49 | 0 | 0.0 | 2.0 | 0.00 | 0.00 | 0.00 | 59 | 1012.8 |
| 20260905094403 | 49 | 0 | 0.0 | 2.0 | 0.00 | 0.00 | 0.00 | 59 | 1012.9 |
| 20260905094304 | 49 | 0 | 0.0 | 2.0 | 0.00 | 0.00 | 0.00 | 59 | 1012.9 |
| 20260905094204 | 49 | 0 | 0.0 | 2.0 | 0.00 | 0.00 | 0.00 | 60 | 1012.9 |
| 20260905094103 | 49 | 0 | 0.0 | 4.0 | 0.00 | 0.00 | 0.00 | 60 | 1012.8 |
| 20260905094004 | 49 | 0 | 0.0 | 4.0 | 0.00 | 0.00 | 0.00 | 60 | 1012.9 |
| 20260905093904 | 49 | 0 | 0.0 | 4.0 | 0.00 | 0.00 | 0.00 | 60 | 1012.8 |
| 20260905093803 | 49 | 0 | 0.0 | 4.0 | 0.00 | 0.00 | 0.00 | 60 | 1012.8 |
| 20260905093703 | 49 | 0 | 0.0 | 4.0 | 0.00 | 0.00 | 0.00 | 60 | 1012.8 |
| 20260905093604 | 49 | 239 | 2.0 | 4.0 | 0.00 | 0.00 | 0.00 | 60 | 1012.8 |
| 20260905093504 | 49 | 244 | 1.0 | 4.0 | 0.00 | 0.00 | 0.00 | 60 | 1012.7 |
| 20260905093303 | 49 | 254 | 1.0 | 4.0 | 0.00 | 0.00 | 0.00 | 59 | 1012.7 |
| 20260905093204 | 49 | 257 | 2.0 | 4.0 | 0.00 | 0.00 | 0.00 | 59 | 1012.7 |
| 20260905093104 | 49 | 263 | 2.0 | 3.0 | 0.00 | 0.00 | 0.00 | 59 | 1012.7 |
| 20260905093004 | 49 | 256 | 2.0 | 3.0 | 0.00 | 0.00 | 0.00 | 58 | 1012.6 |
| 20260905092903 | 50 | 244 | 2.0 | 3.0 | 0.00 | 0.00 | 0.00 | 58 | 1012.7 |
| 20260905092404 | 51 | 0 | 0.0 | 2.0 | 0.00 | 0.00 | 0.00 | 58 | 1012.6 |
| 20260905092306 | 51 | 0 | 0.0 | 2.0 | 0.00 | 0.00 | 0.00 | 58 | 1012.7 |
| 20260905092204 | 51 | 0 | 0.0 | 2.0 | 0.00 | 0.00 | 0.00 | 58 | 1012.7 |
| 20260905092104 | 51 | 0 | 0.0 | 2.0 | 0.00 | 0.00 | 0.00 | 58 | 1012.5 |
| 20260905092004 | 51 | 0 | 0.0 | 2.0 | 0.00 | 0.00 | 0.00 | 58 | 1012.6 |
| 20260905091903 | 51 | 195 | 1.0 | 2.0 | 0.00 | 0.00 | 0.00 | 58 | 1012.5 |
| 20260905091804 | 51 | 198 | 1.0 | 2.0 | 0.00 | 0.00 | 0.00 | 59 | 1012.5 |
| 20260905091704 | 51 | 195 | 1.0 | 2.0 | 0.00 | 0.00 | 0.00 | 59 | 1012.6 |
| 20260905091604 | 51 | 201 | 1.0 | 2.0 | 0.00 | 0.00 | 0.00 | 59 | 1012.6 |
| 20260905091503 | 51 | 209 | 1.0 | 2.0 | 0.00 | 0.00 | 0.00 | 59 | 1012.6 |
| 20260905091403 | 51 | 219 | 2.0 | 2.0 | 0.00 | 0.00 | 0.00 | 59 | 1012.6 |
| 20260905091304 | 51 | 225 | 1.0 | 2.0 | 0.00 | 0.00 | 0.00 | 59 | 1012.5 |
| 20260905091204 | 51 | 236 | 1.0 | 2.0 | 0.00 | 0.00 | 0.00 | 59 | 1012.5 |
| 20260905091103 | 51 | 243 | 1.0 | 2.0 | 0.00 | 0.00 | 0.00 | 59 | 1012.5 |
| 20260905091004 | 51 | 0 | 0.0 | 2.0 | 0.00 | 0.00 | 0.00 | 59 | 1012.5 |
| 20260905090904 | 51 | 0 | 0.0 | 2.0 | 0.00 | 0.00 | 0.00 | 59 | 1012.5 |
| 20260905090804 | 50 | 255 | 1.0 | 2.0 | 0.00 | 0.00 | 0.00 | 60 | 1012.5 |
| 20260905090703 | 50 | 0 | 0.0 | 2.0 | 0.00 | 0.00 | 0.00 | 61 | 1012.5 |
| 20260905090604 | 50 | 0 | 0.0 | 2.0 | 0.00 | 0.00 | 0.00 | 61 | 1012.5 |
| 20260905090004 | 50 | 0 | 0.0 | 2.0 | 0.00 | 0.00 | 0.00 | 60 | 1012.6 |
| 20260905085904 | 50 | 154 | 1.0 | 2.0 | 0.00 | 0.00 | 0.00 | 60 | 1012.6 |
| 20260905085804 | 50 | 150 | 1.0 | 2.0 | 0.00 | 0.00 | 0.00 | 60 | 1012.7 |
| 20260905085703 | 50 | 0 | 0.0 | 2.0 | 0.00 | 0.00 | 0.00 | 59 | 1012.8 |
| 20260905085603 | 50 | 0 | 0.0 | 2.0 | 0.00 | 0.00 | 0.00 | 59 | 1012.6 |
| 20260905085404 | 50 | 0 | 0.0 | 2.0 | 0.00 | 0.00 | 0.00 | 60 | 1012.8 |
| 20260905085306 | 50 | 0 | 0.0 | 2.0 | 0.00 | 0.00 | 0.00 | 60 | 1012.7 |
| 20260905085204 | 50 | 171 | 1.0 | 2.0 | 0.00 | 0.00 | 0.00 | 60 | 1012.7 |
| 20260905085104 | 50 | 0 | 0.0 | 2.0 | 0.00 | 0.00 | 0.00 | 60 | 1012.6 |
| 20260905085004 | 50 | 0 | 0.0 | 2.0 | 0.00 | 0.00 | 0.00 | 60 | 1012.7 |
| 20260905084904 | 50 | 191 | 1.0 | 2.0 | 0.00 | 0.00 | 0.00 | 60 | 1012.8 |
| 20260905084804 | 49 | 0 | 0.0 | 2.0 | 0.00 | 0.00 | 0.00 | 61 | 1012.7 |
| 20260905084703 | 49 | 197 | 1.0 | 2.0 | 0.00 | 0.00 | 0.00 | 61 | 1012.6 |
| 20260905084604 | 49 | 189 | 1.0 | 2.0 | 0.00 | 0.00 | 0.00 | 61 | 1012.7 |
| 20260905084503 | 49 | 184 | 1.0 | 2.0 | 0.00 | 0.00 | 0.00 | 61 | 1012.7 |
| 20260905084404 | 49 | 209 | 1.0 | 2.0 | 0.00 | 0.00 | 0.00 | 60 | 1012.6 |
| 20260905084304 | 49 | 192 | 2.0 | 2.0 | 0.00 | 0.00 | 0.00 | 59 | 1012.8 |
| 20260905084204 | 49 | 0 | 0.0 | 2.0 | 0.00 | 0.00 | 0.00 | 59 | 1012.6 |
| 20260905084104 | 49 | 0 | 0.0 | 2.0 | 0.00 | 0.00 | 0.00 | 59 | 1012.6 |
| 20260905084004 | 49 | 109 | 1.0 | 2.0 | 0.00 | 0.00 | 0.00 | 58 | 1012.6 |
| 20260905083904 | 49 | 0 | 0.0 | 2.0 | 0.00 | 0.00 | 0.00 | 58 | 1012.6 |
| 20260905083803 | 49 | 0 | 0.0 | 2.0 | 0.00 | 0.00 | 0.00 | 57 | 1012.6 |
| 20260905083704 | 49 | 0 | 0.0 | 2.0 | 0.00 | 0.00 | 0.00 | 57 | 1012.6 |
| 20260905083604 | 49 | 138 | 1.0 | 2.0 | 0.00 | 0.00 | 0.00 | 56 | 1012.5 |
| 20260905083503 | 50 | 144 | 1.0 | 3.0 | 0.00 | 0.00 | 0.00 | 56 | 1012.5 |
| 20260905083404 | 50 | 0 | 0.0 | 3.0 | 0.00 | 0.00 | 0.00 | 56 | 1012.6 |
| 20260905083304 | 50 | 0 | 0.0 | 3.0 | 0.00 | 0.00 | 0.00 | 56 | 1012.6 |
| 20260905083103 | 50 | 0 | 0.0 | 3.0 | 0.00 | 0.00 | 0.00 | 55 | 1012.6 |
| 20260905083003 | 50 | 162 | 1.0 | 4.0 | 0.00 | 0.00 | 0.00 | 55 | 1012.5 |
| 20260905082904 | 50 | 167 | 1.0 | 4.0 | 0.00 | 0.00 | 0.00 | 55 | 1012.6 |
| 20260905082804 | 51 | 169 | 1.0 | 4.0 | 0.00 | 0.00 | 0.00 | 54 | 1012.6 |
| 20260905082703 | 51 | 0 | 0.0 | 4.0 | 0.00 | 0.00 | 0.00 | 54 | 1012.7 |
| 20260905082604 | 51 | 163 | 2.0 | 4.0 | 0.00 | 0.00 | 0.00 | 54 | 1012.5 |
| 20260905082104 | 52 | 0 | 0.0 | 4.0 | 0.00 | 0.00 | 0.00 | 52 | 1012.5 |
| 20260905081603 | 53 | 167 | 1.0 | 2.0 | 0.00 | 0.00 | 0.00 | 50 | 1012.5 |
| 20260905081104 | 54 | 0 | 0.0 | 2.0 | 0.00 | 0.00 | 0.00 | 49 | 1012.4 |
| 20260905080604 | 55 | 0 | 0.0 | 2.0 | 0.00 | 0.00 | 0.00 | 48 | 1012.4 |
| 20260905080503 | 55 | 0 | 0.0 | 2.0 | 0.00 | 0.00 | 0.00 | 48 | 1012.5 |
| 20260905080404 | 55 | 0 | 0.0 | 2.0 | 0.00 | 0.00 | 0.00 | 48 | 1012.6 |
| 20260905080304 | 55 | 0 | 0.0 | 2.0 | 0.00 | 0.00 | 0.00 | 48 | 1012.5 |
| 20260905080204 | 55 | 0 | 0.0 | 2.0 | 0.00 | 0.00 | 0.00 | 48 | 1012.6 |
| 20260905080104 | 55 | 0 | 0.0 | 2.0 | 0.00 | 0.00 | 0.00 | 48 | 1012.5 |
| 20260905080004 | 55 | 69 | 1.0 | 2.0 | 0.00 | 0.00 | 0.00 | 48 | 1012.3 |
| 20260905075904 | 55 | 25 | 1.0 | 2.0 | 0.00 | 0.00 | 0.00 | 47 | 1012.4 |
| 20260905075804 | 55 | 0 | 0.0 | 2.0 | 0.00 | 0.00 | 0.00 | 48 | 1012.4 |
| 20260905075704 | 55 | 0 | 0.0 | 2.0 | 0.00 | 0.00 | 0.00 | 48 | 1012.4 |
| 20260905075604 | 56 | 0 | 0.0 | 2.0 | 0.00 | 0.00 | 0.00 | 48 | 1012.3 |
| 20260905075504 | 56 | 0 | 0.0 | 2.0 | 0.00 | 0.00 | 0.00 | 48 | 1012.4 |
| 20260905075306 | 56 | 0 | 0.0 | 2.0 | 0.00 | 0.00 | 0.00 | 48 | 1012.4 |
| 20260905075204 | 56 | 0 | 0.0 | 2.0 | 0.00 | 0.00 | 0.00 | 47 | 1012.4 |
| 20260905075103 | 56 | 0 | 0.0 | 2.0 | 0.00 | 0.00 | 0.00 | 47 | 1012.4 |
| 20260905075003 | 56 | 0 | 0.0 | 3.0 | 0.00 | 0.00 | 0.00 | 47 | 1012.3 |
| 20260905074904 | 56 | 0 | 0.0 | 3.0 | 0.00 | 0.00 | 0.00 | 46 | 1012.4 |
| 20260905074204 | 56 | 0 | 0.0 | 4.0 | 0.00 | 0.00 | 0.00 | 45 | 1012.3 |
| 20260905074104 | 56 | 0 | 0.0 | 4.0 | 0.00 | 0.00 | 0.00 | 45 | 1012.3 |
| 20260905074003 | 57 | 25 | 2.0 | 5.0 | 0.00 | 0.00 | 0.00 | 44 | 1012.3 |
| 20260905073904 | 57 | 25 | 2.0 | 5.0 | 0.00 | 0.00 | 0.00 | 44 | 1012.4 |
| 20260905073804 | 57 | 29 | 2.0 | 5.0 | 0.00 | 0.00 | 0.00 | 44 | 1012.4 |
| 20260905073704 | 57 | 32 | 2.0 | 8.0 | 0.00 | 0.00 | 0.00 | 44 | 1012.3 |
| 20260905073604 | 57 | 30 | 1.0 | 8.0 | 0.00 | 0.00 | 0.00 | 44 | 1012.3 |
| 20260905073504 | 57 | 18 | 2.0 | 8.0 | 0.00 | 0.00 | 0.00 | 44 | 1012.2 |
| 20260905073404 | 58 | 341 | 2.0 | 8.0 | 0.00 | 0.00 | 0.00 | 44 | 1012.3 |
| 20260905073304 | 58 | 299 | 2.0 | 8.0 | 0.00 | 0.00 | 0.00 | 44 | 1012.3 |
| 20260905073203 | 58 | 279 | 2.0 | 10.0 | 0.00 | 0.00 | 0.00 | 45 | 1012.3 |
| 20260905073104 | 58 | 282 | 3.0 | 10.0 | 0.00 | 0.00 | 0.00 | 45 | 1012.3 |
| 20260905073004 | 58 | 289 | 3.0 | 10.0 | 0.00 | 0.00 | 0.00 | 45 | 1012.3 |
| 20260905072904 | 58 | 291 | 3.0 | 10.0 | 0.00 | 0.00 | 0.00 | 45 | 1012.3 |
| 20260905072804 | 58 | 288 | 3.0 | 10.0 | 0.00 | 0.00 | 0.00 | 47 | 1012.2 |
| 20260905072703 | 57 | 282 | 5.0 | 10.0 | 0.00 | 0.00 | 0.00 | 48 | 1012.3 |
| 20260905072604 | 57 | 305 | 5.0 | 10.0 | 0.00 | 0.00 | 0.00 | 48 | 1012.2 |
| 20260905072504 | 57 | 348 | 5.0 | 10.0 | 0.00 | 0.00 | 0.00 | 48 | 1012.3 |
| 20260905072404 | 57 | 22 | 5.0 | 10.0 | 0.00 | 0.00 | 0.00 | 48 | 1012.3 |
| 20260905072306 | 57 | 37 | 5.0 | 10.0 | 0.00 | 0.00 | 0.00 | 48 | 1012.1 |
| 20260905072203 | 56 | 37 | 4.0 | 10.0 | 0.00 | 0.00 | 0.00 | 48 | 1012.2 |
| 20260905072103 | 56 | 28 | 2.0 | 7.0 | 0.00 | 0.00 | 0.00 | 47 | 1012.2 |
| 20260905072003 | 56 | 37 | 4.0 | 7.0 | 0.00 | 0.00 | 0.00 | 47 | 1012.2 |
| 20260905071904 | 56 | 55 | 2.0 | 4.0 | 0.00 | 0.00 | 0.00 | 46 | 1012.2 |
| 20260905071804 | 56 | 70 | 3.0 | 4.0 | 0.00 | 0.00 | 0.00 | 45 | 1012.2 |
| 20260905071704 | 56 | 321 | 2.0 | 4.0 | 0.00 | 0.00 | 0.00 | 45 | 1012.1 |
| 20260905071603 | 56 | 291 | 1.0 | 3.0 | 0.00 | 0.00 | 0.00 | 45 | 1012.2 |
| 20260905071504 | 56 | 296 | 1.0 | 3.0 | 0.00 | 0.00 | 0.00 | 45 | 1012.2 |
| 20260905071404 | 56 | 0 | 0.0 | 3.0 | 0.00 | 0.00 | 0.00 | 44 | 1012.3 |
| 20260905071304 | 56 | 0 | 0.0 | 3.0 | 0.00 | 0.00 | 0.00 | 44 | 1012.2 |
| 20260905071203 | 56 | 0 | 0.0 | 3.0 | 0.00 | 0.00 | 0.00 | 44 | 1012.1 |
| 20260905071104 | 56 | 0 | 0.0 | 3.0 | 0.00 | 0.00 | 0.00 | 44 | 1012.2 |
| 20260905071004 | 56 | 0 | 0.0 | 3.0 | 0.00 | 0.00 | 0.00 | 44 | 1012.2 |
| 20260905070904 | 56 | 0 | 0.0 | 3.0 | 0.00 | 0.00 | 0.00 | 44 | 1012.2 |
| 20260905070804 | 56 | 0 | 0.0 | 3.0 | 0.00 | 0.00 | 0.00 | 44 | 1012.3 |
| 20260905070704 | 56 | 299 | 2.0 | 3.0 | 0.00 | 0.00 | 0.00 | 43 | 1012.2 |
| 20260905070604 | 56 | 296 | 2.0 | 3.0 | 0.00 | 0.00 | 0.00 | 43 | 1012.1 |
| 20260905070007 | 56 | 274 | 1.0 | 4.0 | 0.00 | 0.00 | 0.00 | 43 | 1011.9 |
| 20260905065904 | 56 | 273 | 2.0 | 4.0 | 0.00 | 0.00 | 0.00 | 43 | 1012.1 |
| 20260905065803 | 56 | 278 | 2.0 | 4.0 | 0.00 | 0.00 | 0.00 | 43 | 1012.0 |
| 20260905065704 | 56 | 0 | 0.0 | 4.0 | 0.00 | 0.00 | 0.00 | 43 | 1012.0 |
| 20260905065603 | 56 | 0 | 0.0 | 5.0 | 0.00 | 0.00 | 0.00 | 43 | 1012.1 |
| 20260905065504 | 56 | 304 | 1.0 | 5.0 | 0.00 | 0.00 | 0.00 | 43 | 1012.0 |
| 20260905065404 | 56 | 311 | 2.0 | 5.0 | 0.00 | 0.00 | 0.00 | 42 | 1012.1 |
| 20260905065306 | 56 | 319 | 1.0 | 5.0 | 0.00 | 0.00 | 0.00 | 42 | 1012.1 |
| 20260905065203 | 56 | 325 | 1.0 | 5.0 | 0.00 | 0.00 | 0.00 | 42 | 1012.0 |
| 20260905065104 | 56 | 325 | 2.0 | 5.0 | 0.00 | 0.00 | 0.00 | 42 | 1011.9 |
| 20260905065004 | 57 | 333 | 3.0 | 5.0 | 0.00 | 0.00 | 0.00 | 42 | 1012.0 |
| 20260905064903 | 57 | 345 | 3.0 | 5.0 | 0.00 | 0.00 | 0.00 | 41 | 1011.9 |
| 20260905064803 | 57 | 1 | 3.0 | 5.0 | 0.00 | 0.00 | 0.00 | 41 | 1011.9 |
| 20260905064704 | 57 | 18 | 2.0 | 5.0 | 0.00 | 0.00 | 0.00 | 41 | 1012.0 |
| 20260905064604 | 57 | 43 | 2.0 | 4.0 | 0.00 | 0.00 | 0.00 | 39 | 1011.9 |
| 20260905064504 | 58 | 97 | 2.0 | 3.0 | 0.00 | 0.00 | 0.00 | 39 | 1011.9 |
| 20260905064403 | 58 | 154 | 2.0 | 3.0 | 0.00 | 0.00 | 0.00 | 40 | 1011.9 |
| 20260905064304 | 58 | 176 | 2.0 | 3.0 | 0.00 | 0.00 | 0.00 | 40 | 1011.8 |
| 20260905064204 | 58 | 0 | 0.0 | 2.0 | 0.00 | 0.00 | 0.00 | 40 | 1011.8 |
| 20260905064104 | 58 | 0 | 0.0 | 2.0 | 0.00 | 0.00 | 0.00 | 39 | 1011.8 |
| 20260905064003 | 59 | 0 | 0.0 | 4.0 | 0.00 | 0.00 | 0.00 | 39 | 1011.8 |
| 20260905063904 | 59 | 0 | 0.0 | 4.0 | 0.00 | 0.00 | 0.00 | 38 | 1011.9 |
| 20260905063404 | 59 | 0 | 0.0 | 4.0 | 0.00 | 0.00 | 0.00 | 38 | 1011.7 |
| 20260905063304 | 59 | 0 | 0.0 | 4.0 | 0.00 | 0.00 | 0.00 | 38 | 1011.8 |
| 20260905063204 | 59 | 224 | 1.0 | 4.0 | 0.00 | 0.00 | 0.00 | 38 | 1011.6 |
| 20260905063103 | 60 | 219 | 2.0 | 4.0 | 0.00 | 0.00 | 0.00 | 38 | 1011.6 |
| 20260905063004 | 60 | 214 | 2.0 | 4.0 | 0.00 | 0.00 | 0.00 | 38 | 1011.6 |
| 20260905062904 | 60 | 207 | 2.0 | 4.0 | 0.00 | 0.00 | 0.00 | 38 | 1011.6 |
| 20260905062803 | 60 | 198 | 2.0 | 4.0 | 0.00 | 0.00 | 0.00 | 38 | 1011.5 |
| 20260905062306 | 60 | 131 | 2.0 | 4.0 | 0.00 | 0.00 | 0.00 | 37 | 1011.5 |
| 20260905062204 | 60 | 0 | 0.0 | 4.0 | 0.00 | 0.00 | 0.00 | 37 | 1011.5 |
| 20260905062103 | 60 | 0 | 0.0 | 5.0 | 0.00 | 0.00 | 0.00 | 37 | 1011.5 |
| 20260905062004 | 60 | 0 | 0.0 | 7.0 | 0.00 | 0.00 | 0.00 | 37 | 1011.6 |
| 20260905061904 | 60 | 0 | 0.0 | 9.0 | 0.00 | 0.00 | 0.00 | 37 | 1011.5 |
| 20260905061804 | 60 | 0 | 0.0 | 9.0 | 0.00 | 0.00 | 0.00 | 37 | 1011.5 |
| 20260905061703 | 60 | 0 | 0.0 | 9.0 | 0.00 | 0.00 | 0.00 | 37 | 1011.5 |
| 20260905061604 | 60 | 0 | 0.0 | 11.0 | 0.00 | 0.00 | 0.00 | 37 | 1011.4 |
| 20260905061504 | 60 | 0 | 0.0 | 11.0 | 0.00 | 0.00 | 0.00 | 37 | 1011.4 |
| 20260905061405 | 60 | 80 | 2.0 | 11.0 | 0.00 | 0.00 | 0.00 | 37 | 1011.4 |
| 20260905061303 | 60 | 77 | 2.0 | 11.0 | 0.00 | 0.00 | 0.00 | 37 | 1011.3 |
| 20260905061204 | 60 | 77 | 4.0 | 11.0 | 0.00 | 0.00 | 0.00 | 37 | 1011.4 |
| 20260905061103 | 60 | 77 | 5.0 | 11.0 | 0.00 | 0.00 | 0.00 | 37 | 1011.4 |
| 20260905061004 | 60 | 80 | 3.0 | 11.0 | 0.00 | 0.00 | 0.00 | 37 | 1011.3 |
| 20260905060904 | 60 | 75 | 4.0 | 11.0 | 0.00 | 0.00 | 0.00 | 38 | 1011.3 |
| 20260905060803 | 60 | 82 | 7.0 | 11.0 | 0.00 | 0.00 | 0.00 | 38 | 1011.2 |
| 20260905060704 | 60 | 84 | 8.0 | 11.0 | 0.00 | 0.00 | 0.00 | 38 | 1011.2 |
| 20260905060604 | 60 | 95 | 2.0 | 10.0 | 0.00 | 0.00 | 0.00 | 38 | 1011.2 |
| 20260905060503 | 60 | 110 | 4.0 | 10.0 | 0.00 | 0.00 | 0.00 | 38 | 1011.2 |
| 20260905060404 | 60 | 111 | 2.0 | 8.0 | 0.00 | 0.00 | 0.00 | 37 | 1011.2 |
| 20260905060304 | 60 | 109 | 2.0 | 8.0 | 0.00 | 0.00 | 0.00 | 38 | 1011.3 |
| 20260905060203 | 60 | 108 | 2.0 | 8.0 | 0.00 | 0.00 | 0.00 | 37 | 1011.3 |
| 20260905060104 | 60 | 112 | 2.0 | 8.0 | 0.00 | 0.00 | 0.00 | 37 | 1011.2 |
| 20260905060004 | 60 | 115 | 2.0 | 8.0 | 0.00 | 0.00 | 0.00 | 37 | 1011.1 |
| 20260905055904 | 60 | 114 | 4.0 | 8.0 | 0.00 | 0.00 | 0.00 | 37 | 1011.1 |
| 20260905055803 | 60 | 110 | 3.0 | 8.0 | 0.00 | 0.00 | 0.00 | 37 | 1011.1 |
| 20260905055704 | 60 | 112 | 2.0 | 8.0 | 0.00 | 0.00 | 0.00 | 37 | 1011.1 |
| 20260905055604 | 60 | 105 | 2.0 | 8.0 | 0.00 | 0.00 | 0.00 | 37 | 1010.9 |
| 20260905055504 | 60 | 100 | 2.0 | 8.0 | 0.00 | 0.00 | 0.00 | 37 | 1010.9 |
| 20260905055403 | 60 | 95 | 4.0 | 7.0 | 0.00 | 0.00 | 0.00 | 37 | 1011.0 |
| 20260905055306 | 60 | 102 | 2.0 | 6.0 | 0.00 | 0.00 | 0.00 | 37 | 1011.0 |
| 20260905055204 | 60 | 0 | 0.0 | 7.0 | 0.00 | 0.00 | 0.00 | 37 | 1010.9 |
| 20260905055104 | 60 | 97 | 2.0 | 7.0 | 0.00 | 0.00 | 0.00 | 37 | 1010.9 |
| 20260905055003 | 60 | 94 | 2.0 | 7.0 | 0.00 | 0.00 | 0.00 | 37 | 1011.0 |
| 20260905054904 | 60 | 94 | 1.0 | 7.0 | 0.00 | 0.00 | 0.00 | 37 | 1010.9 |
| 20260905054804 | 60 | 94 | 1.0 | 8.0 | 0.00 | 0.00 | 0.00 | 37 | 1010.9 |
| 20260905054703 | 60 | 90 | 3.0 | 8.0 | 0.00 | 0.00 | 0.00 | 37 | 1011.0 |
| 20260905054604 | 60 | 90 | 4.0 | 8.0 | 0.00 | 0.00 | 0.00 | 37 | 1010.9 |
| 20260905054504 | 60 | 90 | 4.0 | 8.0 | 0.00 | 0.00 | 0.00 | 37 | 1010.9 |
| 20260905054403 | 60 | 90 | 1.0 | 8.0 | 0.00 | 0.00 | 0.00 | 36 | 1010.9 |
| 20260905054303 | 60 | 90 | 3.0 | 8.0 | 0.00 | 0.00 | 0.00 | 37 | 1011.0 |
| 20260905054204 | 61 | 90 | 4.0 | 8.0 | 0.00 | 0.00 | 0.00 | 37 | 1010.8 |
| 20260905054104 | 61 | 94 | 4.0 | 8.0 | 0.00 | 0.00 | 0.00 | 36 | 1010.8 |
| 20260905054003 | 61 | 99 | 4.0 | 8.0 | 0.00 | 0.00 | 0.00 | 36 | 1010.8 |
| 20260905053904 | 61 | 99 | 4.0 | 8.0 | 0.00 | 0.00 | 0.00 | 36 | 1010.8 |
| 20260905053404 | 61 | 109 | 2.0 | 11.0 | 0.00 | 0.00 | 0.00 | 35 | 1010.9 |
| 20260905053304 | 61 | 105 | 2.0 | 11.0 | 0.00 | 0.00 | 0.00 | 35 | 1010.8 |
| 20260905053204 | 62 | 102 | 2.0 | 11.0 | 0.00 | 0.00 | 0.00 | 35 | 1010.6 |
| 20260905053104 | 62 | 99 | 2.0 | 11.0 | 0.00 | 0.00 | 0.00 | 35 | 1010.6 |
| 20260905053004 | 62 | 97 | 2.0 | 11.0 | 0.00 | 0.00 | 0.00 | 34 | 1010.7 |
| 20260905052903 | 62 | 97 | 4.0 | 11.0 | 0.00 | 0.00 | 0.00 | 34 | 1010.6 |
| 20260905052804 | 62 | 98 | 4.0 | 11.0 | 0.00 | 0.00 | 0.00 | 35 | 1010.7 |
| 20260905052703 | 62 | 93 | 2.0 | 11.0 | 0.00 | 0.00 | 0.00 | 34 | 1010.7 |
| 20260905052604 | 62 | 91 | 2.0 | 11.0 | 0.00 | 0.00 | 0.00 | 34 | 1010.6 |
| 20260905052504 | 62 | 87 | 4.0 | 11.0 | 0.00 | 0.00 | 0.00 | 34 | 1010.7 |
| 20260905052404 | 62 | 87 | 6.0 | 10.0 | 0.00 | 0.00 | 0.00 | 34 | 1010.5 |
| 20260905052306 | 62 | 87 | 2.0 | 6.0 | 0.00 | 0.00 | 0.00 | 32 | 1010.6 |
| 20260905052203 | 62 | 87 | 2.0 | 6.0 | 0.00 | 0.00 | 0.00 | 32 | 1010.6 |
| 20260905052104 | 62 | 89 | 2.0 | 6.0 | 0.00 | 0.00 | 0.00 | 32 | 1010.5 |
| 20260905052004 | 62 | 90 | 2.0 | 7.0 | 0.00 | 0.00 | 0.00 | 32 | 1010.6 |
| 20260905051903 | 62 | 90 | 2.0 | 8.0 | 0.00 | 0.00 | 0.00 | 32 | 1010.6 |
| 20260905051803 | 62 | 90 | 2.0 | 8.0 | 0.00 | 0.00 | 0.00 | 32 | 1010.6 |
| 20260905051704 | 62 | 90 | 2.0 | 8.0 | 0.00 | 0.00 | 0.00 | 32 | 1010.5 |
| 20260905051604 | 62 | 92 | 3.0 | 8.0 | 0.00 | 0.00 | 0.00 | 32 | 1010.5 |
| 20260905051503 | 62 | 96 | 2.0 | 8.0 | 0.00 | 0.00 | 0.00 | 32 | 1010.6 |
| 20260905051404 | 62 | 101 | 4.0 | 8.0 | 0.00 | 0.00 | 0.00 | 32 | 1010.5 |
| 20260905051304 | 62 | 111 | 2.0 | 8.0 | 0.00 | 0.00 | 0.00 | 31 | 1010.6 |
| 20260905051204 | 63 | 127 | 1.0 | 8.0 | 0.00 | 0.00 | 0.00 | 30 | 1010.5 |
| 20260905051004 | 63 | 159 | 4.0 | 8.0 | 0.00 | 0.00 | 0.00 | 29 | 1010.5 |
| 20260905050903 | 63 | 175 | 5.0 | 8.0 | 0.00 | 0.00 | 0.00 | 29 | 1010.5 |
| 20260905050803 | 64 | 200 | 3.0 | 8.0 | 0.00 | 0.00 | 0.00 | 28 | 1010.4 |
| 20260905050704 | 64 | 213 | 4.0 | 8.0 | 0.00 | 0.00 | 0.00 | 27 | 1010.4 |
| 20260905050004 | 65 | 235 | 3.0 | 10.0 | 0.00 | 0.00 | 0.00 | 26 | 1010.3 |
| 20260905045903 | 65 | 236 | 2.0 | 10.0 | 0.00 | 0.00 | 0.00 | 26 | 1010.4 |
| 20260905045803 | 65 | 227 | 2.0 | 10.0 | 0.00 | 0.00 | 0.00 | 26 | 1010.3 |
| 20260905045704 | 65 | 226 | 2.0 | 10.0 | 0.00 | 0.00 | 0.00 | 26 | 1010.4 |
| 20260905045604 | 65 | 228 | 5.0 | 10.0 | 0.00 | 0.00 | 0.00 | 26 | 1010.3 |
| 20260905045503 | 65 | 219 | 4.0 | 10.0 | 0.00 | 0.00 | 0.00 | 25 | 1010.2 |
| 20260905045404 | 65 | 213 | 6.0 | 10.0 | 0.00 | 0.00 | 0.00 | 26 | 1010.3 |
| 20260905045306 | 65 | 222 | 6.0 | 10.0 | 0.00 | 0.00 | 0.00 | 26 | 1010.4 |
| 20260905045204 | 65 | 219 | 2.0 | 14.0 | 0.00 | 0.00 | 0.00 | 26 | 1010.1 |
| 20260905045104 | 65 | 221 | 2.0 | 14.0 | 0.00 | 0.00 | 0.00 | 26 | 1010.2 |
| 20260905045004 | 65 | 222 | 2.0 | 14.0 | 0.00 | 0.00 | 0.00 | 26 | 1010.2 |
| 20260905044903 | 65 | 231 | 2.0 | 14.0 | 0.00 | 0.00 | 0.00 | 26 | 1010.1 |
| 20260905044804 | 65 | 244 | 2.0 | 14.0 | 0.00 | 0.00 | 0.00 | 26 | 1010.2 |
| 20260905044704 | 65 | 262 | 2.0 | 14.0 | 0.00 | 0.00 | 0.00 | 26 | 1010.2 |
| 20260905044604 | 65 | 256 | 3.0 | 14.0 | 0.00 | 0.00 | 0.00 | 26 | 1010.2 |
| 20260905044504 | 65 | 258 | 6.0 | 14.0 | 0.00 | 0.00 | 0.00 | 26 | 1010.1 |
| 20260905044403 | 65 | 263 | 6.0 | 14.0 | 0.00 | 0.00 | 0.00 | 26 | 1010.1 |
| 20260905044304 | 65 | 252 | 8.0 | 14.0 | 0.00 | 0.00 | 0.00 | 26 | 1010.0 |
| 20260905044204 | 64 | 262 | 5.0 | 11.0 | 0.00 | 0.00 | 0.00 | 26 | 1010.1 |
| 20260905044103 | 64 | 263 | 7.0 | 11.0 | 0.00 | 0.00 | 0.00 | 26 | 1010.1 |
| 20260905044003 | 64 | 270 | 4.0 | 9.0 | 0.00 | 0.00 | 0.00 | 27 | 1010.0 |
| 20260905043904 | 64 | 286 | 4.0 | 9.0 | 0.00 | 0.00 | 0.00 | 27 | 1010.0 |
| 20260905043804 | 64 | 276 | 6.0 | 9.0 | 0.00 | 0.00 | 0.00 | 27 | 1009.9 |
| 20260905043704 | 64 | 247 | 4.0 | 9.0 | 0.00 | 0.00 | 0.00 | 27 | 1009.9 |
| 20260905043603 | 64 | 266 | 4.0 | 9.0 | 0.00 | 0.00 | 0.00 | 27 | 1009.9 |
| 20260905043504 | 65 | 293 | 4.0 | 8.0 | 0.00 | 0.00 | 0.00 | 27 | 1009.9 |
| 20260905043404 | 65 | 326 | 4.0 | 9.0 | 0.00 | 0.00 | 0.00 | 27 | 1010.0 |
| 20260905043304 | 65 | 342 | 2.0 | 9.0 | 0.00 | 0.00 | 0.00 | 27 | 1009.9 |
| 20260905043204 | 65 | 336 | 2.0 | 9.0 | 0.00 | 0.00 | 0.00 | 27 | 1009.8 |
| 20260905043104 | 65 | 319 | 1.0 | 9.0 | 0.00 | 0.00 | 0.00 | 27 | 1010.0 |
| 20260905043003 | 65 | 316 | 1.0 | 9.0 | 0.00 | 0.00 | 0.00 | 27 | 1010.0 |
| 20260905042903 | 65 | 309 | 2.0 | 9.0 | 0.00 | 0.00 | 0.00 | 27 | 1009.9 |
| 20260905042804 | 65 | 296 | 2.0 | 9.0 | 0.00 | 0.00 | 0.00 | 26 | 1009.9 |
| 20260905042704 | 65 | 291 | 2.0 | 9.0 | 0.00 | 0.00 | 0.00 | 26 | 1009.8 |
| 20260905042603 | 65 | 277 | 4.0 | 9.0 | 0.00 | 0.00 | 0.00 | 26 | 1009.9 |
| 20260905042003 | 66 | 239 | 4.0 | 15.0 | 0.00 | 0.00 | 0.00 | 26 | 1009.9 |
| 20260905041904 | 66 | 245 | 4.0 | 15.0 | 0.00 | 0.00 | 0.00 | 26 | 1009.8 |
| 20260905041804 | 66 | 262 | 4.0 | 15.0 | 0.00 | 0.00 | 0.00 | 26 | 1009.9 |
| 20260905041704 | 66 | 302 | 4.0 | 15.0 | 0.00 | 0.00 | 0.00 | 25 | 1009.8 |
| 20260905041603 | 66 | 304 | 4.0 | 15.0 | 0.00 | 0.00 | 0.00 | 25 | 1009.8 |
| 20260905041503 | 66 | 284 | 3.0 | 15.0 | 0.00 | 0.00 | 0.00 | 25 | 1009.8 |
| 20260905041404 | 66 | 272 | 4.0 | 15.0 | 0.00 | 0.00 | 0.00 | 24 | 1009.9 |
| 20260905041304 | 66 | 262 | 3.0 | 15.0 | 0.00 | 0.00 | 0.00 | 24 | 1009.8 |
| 20260905041203 | 66 | 265 | 5.0 | 15.0 | 0.00 | 0.00 | 0.00 | 24 | 1009.8 |
| 20260905041103 | 66 | 272 | 8.0 | 14.0 | 0.00 | 0.00 | 0.00 | 24 | 1009.8 |
| 20260905041004 | 66 | 275 | 4.0 | 11.0 | 0.00 | 0.00 | 0.00 | 25 | 1009.8 |
| 20260905040904 | 66 | 274 | 3.0 | 10.0 | 0.00 | 0.00 | 0.00 | 25 | 1009.8 |
| 20260905040803 | 66 | 276 | 3.0 | 12.0 | 0.00 | 0.00 | 0.00 | 25 | 1009.8 |
| 20260905040703 | 66 | 265 | 5.0 | 15.0 | 0.00 | 0.00 | 0.00 | 25 | 1009.7 |
| 20260905040604 | 66 | 267 | 5.0 | 15.0 | 0.00 | 0.00 | 0.00 | 25 | 1009.8 |
| 20260905040504 | 66 | 262 | 5.0 | 15.0 | 0.00 | 0.00 | 0.00 | 25 | 1009.8 |
| 20260905040404 | 66 | 256 | 5.0 | 15.0 | 0.00 | 0.00 | 0.00 | 25 | 1009.7 |
| 20260905040303 | 66 | 257 | 5.0 | 15.0 | 0.00 | 0.00 | 0.00 | 25 | 1009.8 |
| 20260905040204 | 66 | 252 | 5.0 | 15.0 | 0.00 | 0.00 | 0.00 | 25 | 1009.8 |
| 20260905035604 | 66 | 230 | 4.0 | 11.0 | 0.00 | 0.00 | 0.00 | 26 | 1009.7 |
| 20260905035503 | 66 | 234 | 5.0 | 11.0 | 0.00 | 0.00 | 0.00 | 25 | 1009.7 |
| 20260905035403 | 66 | 237 | 3.0 | 11.0 | 0.00 | 0.00 | 0.00 | 25 | 1009.6 |
| 20260905035306 | 66 | 222 | 2.0 | 11.0 | 0.00 | 0.00 | 0.00 | 25 | 1009.7 |
| 20260905035204 | 66 | 219 | 4.0 | 11.0 | 0.00 | 0.00 | 0.00 | 24 | 1009.7 |
| 20260905035104 | 66 | 217 | 3.0 | 11.0 | 0.00 | 0.00 | 0.00 | 25 | 1009.6 |
| 20260905035003 | 66 | 209 | 4.0 | 11.0 | 0.00 | 0.00 | 0.00 | 24 | 1009.6 |
| 20260905034904 | 66 | 218 | 4.0 | 11.0 | 0.00 | 0.00 | 0.00 | 24 | 1009.6 |
| 20260905034804 | 66 | 215 | 2.0 | 10.0 | 0.00 | 0.00 | 0.00 | 24 | 1009.6 |
| 20260905034704 | 66 | 207 | 3.0 | 10.0 | 0.00 | 0.00 | 0.00 | 25 | 1009.6 |
| 20260905034603 | 66 | 200 | 3.0 | 10.0 | 0.00 | 0.00 | 0.00 | 24 | 1009.6 |
| 20260905034504 | 66 | 196 | 3.0 | 10.0 | 0.00 | 0.00 | 0.00 | 24 | 1009.6 |
| 20260905034404 | 66 | 199 | 2.0 | 10.0 | 0.00 | 0.00 | 0.00 | 24 | 1009.5 |
| 20260905034303 | 66 | 203 | 5.0 | 10.0 | 0.00 | 0.00 | 0.00 | 24 | 1009.7 |
| 20260905034203 | 66 | 194 | 8.0 | 10.0 | 0.00 | 0.00 | 0.00 | 24 | 1009.5 |
| 20260905034104 | 66 | 183 | 3.0 | 8.0 | 0.00 | 0.00 | 0.00 | 25 | 1009.6 |
| 20260905034004 | 66 | 185 | 3.0 | 7.0 | 0.00 | 0.00 | 0.00 | 24 | 1009.5 |
| 20260905033904 | 66 | 184 | 2.0 | 8.0 | 0.00 | 0.00 | 0.00 | 24 | 1009.6 |
| 20260905033803 | 67 | 193 | 1.0 | 8.0 | 0.00 | 0.00 | 0.00 | 24 | 1009.6 |
| 20260905033704 | 67 | 196 | 2.0 | 8.0 | 0.00 | 0.00 | 0.00 | 24 | 1009.6 |
| 20260905033604 | 67 | 203 | 2.0 | 9.0 | 0.00 | 0.00 | 0.00 | 24 | 1009.6 |
| 20260905033504 | 67 | 201 | 2.0 | 9.0 | 0.00 | 0.00 | 0.00 | 24 | 1009.6 |
| 20260905033404 | 67 | 200 | 2.0 | 9.0 | 0.00 | 0.00 | 0.00 | 24 | 1009.6 |
| 20260905033304 | 67 | 204 | 2.0 | 9.0 | 0.00 | 0.00 | 0.00 | 24 | 1009.6 |
| 20260905033203 | 67 | 214 | 2.0 | 9.0 | 0.00 | 0.00 | 0.00 | 24 | 1009.7 |
| 20260905033103 | 67 | 227 | 2.0 | 9.0 | 0.00 | 0.00 | 0.00 | 24 | 1009.7 |
| 20260905033004 | 67 | 239 | 2.0 | 9.0 | 0.00 | 0.00 | 0.00 | 24 | 1009.7 |
| 20260905032803 | 67 | 263 | 4.0 | 11.0 | 0.00 | 0.00 | 0.00 | 24 | 1009.6 |
| 20260905032703 | 67 | 267 | 5.0 | 11.0 | 0.00 | 0.00 | 0.00 | 24 | 1009.6 |
| 20260905032604 | 67 | 252 | 4.0 | 11.0 | 0.00 | 0.00 | 0.00 | 24 | 1009.6 |
| 20260905032504 | 67 | 263 | 4.0 | 11.0 | 0.00 | 0.00 | 0.00 | 24 | 1009.5 |
| 20260905032403 | 67 | 248 | 2.0 | 11.0 | 0.00 | 0.00 | 0.00 | 24 | 1009.6 |
| 20260905032306 | 67 | 240 | 3.0 | 11.0 | 0.00 | 0.00 | 0.00 | 24 | 1009.5 |
| 20260905032204 | 67 | 223 | 2.0 | 11.0 | 0.00 | 0.00 | 0.00 | 23 | 1009.6 |
| 20260905032103 | 67 | 207 | 2.0 | 11.0 | 0.00 | 0.00 | 0.00 | 23 | 1009.6 |
| 20260905032003 | 67 | 203 | 4.0 | 11.0 | 0.00 | 0.00 | 0.00 | 23 | 1009.5 |
| 20260905031904 | 67 | 207 | 4.0 | 11.0 | 0.00 | 0.00 | 0.00 | 23 | 1009.5 |
| 20260905031804 | 67 | 214 | 6.0 | 11.0 | 0.00 | 0.00 | 0.00 | 23 | 1009.4 |
| 20260905031703 | 67 | 219 | 2.0 | 10.0 | 0.00 | 0.00 | 0.00 | 23 | 1009.4 |
| 20260905031604 | 67 | 232 | 2.0 | 10.0 | 0.00 | 0.00 | 0.00 | 23 | 1009.5 |
| 20260905031504 | 67 | 237 | 2.0 | 14.0 | 0.00 | 0.00 | 0.00 | 23 | 1009.3 |
| 20260905031403 | 67 | 246 | 5.0 | 14.0 | 0.00 | 0.00 | 0.00 | 23 | 1009.5 |
| 20260905031304 | 67 | 249 | 4.0 | 14.0 | 0.00 | 0.00 | 0.00 | 23 | 1009.5 |
| 20260905031204 | 67 | 247 | 3.0 | 14.0 | 0.00 | 0.00 | 0.00 | 23 | 1009.4 |
| 20260905031103 | 67 | 249 | 4.0 | 14.0 | 0.00 | 0.00 | 0.00 | 23 | 1009.4 |
| 20260905031003 | 67 | 252 | 2.0 | 14.0 | 0.00 | 0.00 | 0.00 | 23 | 1009.4 |
| 20260905030904 | 67 | 257 | 4.0 | 14.0 | 0.00 | 0.00 | 0.00 | 22 | 1009.3 |
| 20260905030804 | 67 | 254 | 6.0 | 14.0 | 0.00 | 0.00 | 0.00 | 23 | 1009.2 |
| 20260905030703 | 67 | 258 | 4.0 | 14.0 | 0.00 | 0.00 | 0.00 | 22 | 1009.1 |
| 20260905030503 | 67 | 264 | 8.0 | 14.0 | 0.00 | 0.00 | 0.00 | 23 | 1009.2 |
| 20260905030404 | 67 | 260 | 5.0 | 14.0 | 0.00 | 0.00 | 0.00 | 23 | 1009.2 |
| 20260905030304 | 67 | 264 | 7.0 | 14.0 | 0.00 | 0.00 | 0.00 | 23 | 1009.2 |
| 20260905030204 | 67 | 270 | 7.0 | 14.0 | 0.00 | 0.00 | 0.00 | 23 | 1009.1 |
| 20260905030004 | 67 | 271 | 7.0 | 14.0 | 0.00 | 0.00 | 0.00 | 23 | 1009.1 |
| 20260905025904 | 67 | 260 | 6.0 | 14.0 | 0.00 | 0.00 | 0.00 | 23 | 1009.3 |
| 20260905025803 | 67 | 260 | 6.0 | 14.0 | 0.00 | 0.00 | 0.00 | 23 | 1009.3 |
| 20260905025703 | 67 | 250 | 2.0 | 14.0 | 0.00 | 0.00 | 0.00 | 23 | 1009.2 |
| 20260905025604 | 67 | 241 | 8.0 | 14.0 | 0.00 | 0.00 | 0.00 | 23 | 1009.3 |
| 20260905025504 | 67 | 232 | 9.0 | 14.0 | 0.00 | 0.00 | 0.00 | 23 | 1009.3 |
| 20260905025403 | 67 | 233 | 2.0 | 8.0 | 0.00 | 0.00 | 0.00 | 23 | 1009.2 |
| 20260905025306 | 67 | 231 | 4.0 | 8.0 | 0.00 | 0.00 | 0.00 | 23 | 1009.3 |
| 20260905025203 | 67 | 229 | 2.0 | 7.0 | 0.00 | 0.00 | 0.00 | 23 | 1009.1 |
| 20260905025104 | 67 | 228 | 2.0 | 9.0 | 0.00 | 0.00 | 0.00 | 23 | 1009.1 |
| 20260905025004 | 67 | 237 | 2.0 | 9.0 | 0.00 | 0.00 | 0.00 | 23 | 1009.2 |
| 20260905024903 | 67 | 241 | 2.0 | 9.0 | 0.00 | 0.00 | 0.00 | 23 | 1009.0 |
| 20260905024804 | 67 | 247 | 2.0 | 9.0 | 0.00 | 0.00 | 0.00 | 23 | 1009.1 |
| 20260905024704 | 67 | 241 | 2.0 | 11.0 | 0.00 | 0.00 | 0.00 | 23 | 1009.0 |
| 20260905024604 | 67 | 245 | 2.0 | 12.0 | 0.00 | 0.00 | 0.00 | 23 | 1008.8 |
| 20260905024504 | 67 | 243 | 2.0 | 15.0 | 0.00 | 0.00 | 0.00 | 23 | 1009.0 |
| 20260905024404 | 67 | 245 | 2.0 | 15.0 | 0.00 | 0.00 | 0.00 | 23 | 1008.9 |
| 20260905024304 | 67 | 242 | 3.0 | 15.0 | 0.00 | 0.00 | 0.00 | 23 | 1008.8 |
| 20260905024203 | 67 | 240 | 4.0 | 15.0 | 0.00 | 0.00 | 0.00 | 23 | 1008.9 |
| 20260905024103 | 67 | 240 | 5.0 | 15.0 | 0.00 | 0.00 | 0.00 | 24 | 1008.8 |
| 20260905024004 | 68 | 236 | 5.0 | 15.0 | 0.00 | 0.00 | 0.00 | 23 | 1008.7 |
| 20260905023903 | 67 | 238 | 5.0 | 15.0 | 0.00 | 0.00 | 0.00 | 23 | 1008.8 |
| 20260905023803 | 67 | 237 | 4.0 | 15.0 | 0.00 | 0.00 | 0.00 | 24 | 1008.8 |
| 20260905023704 | 68 | 239 | 7.0 | 15.0 | 0.00 | 0.00 | 0.00 | 24 | 1008.7 |
| 20260905023604 | 68 | 235 | 8.0 | 15.0 | 0.00 | 0.00 | 0.00 | 24 | 1008.7 |
| 20260905023503 | 68 | 241 | 6.0 | 13.0 | 0.00 | 0.00 | 0.00 | 24 | 1008.7 |
| 20260905023403 | 68 | 246 | 5.0 | 13.0 | 0.00 | 0.00 | 0.00 | 24 | 1008.8 |
| 20260905023304 | 68 | 254 | 5.0 | 13.0 | 0.00 | 0.00 | 0.00 | 24 | 1008.7 |
| 20260905023204 | 68 | 264 | 8.0 | 13.0 | 0.00 | 0.00 | 0.00 | 24 | 1008.7 |
| 20260905023103 | 68 | 267 | 8.0 | 15.0 | 0.00 | 0.00 | 0.00 | 24 | 1008.7 |
| 20260905023003 | 68 | 274 | 8.0 | 15.0 | 0.00 | 0.00 | 0.00 | 24 | 1008.7 |
| 20260905022904 | 68 | 273 | 7.0 | 15.0 | 0.00 | 0.00 | 0.00 | 24 | 1008.6 |
| 20260905022804 | 68 | 274 | 3.0 | 15.0 | 0.00 | 0.00 | 0.00 | 24 | 1008.7 |
| 20260905022703 | 68 | 278 | 5.0 | 15.0 | 0.00 | 0.00 | 0.00 | 24 | 1008.6 |
| 20260905022603 | 68 | 282 | 5.0 | 15.0 | 0.00 | 0.00 | 0.00 | 24 | 1008.6 |
| 20260905022504 | 68 | 276 | 6.0 | 15.0 | 0.00 | 0.00 | 0.00 | 25 | 1008.6 |
| 20260905022404 | 67 | 262 | 5.0 | 15.0 | 0.00 | 0.00 | 0.00 | 25 | 1008.7 |
| 20260905022306 | 67 | 249 | 5.0 | 15.0 | 0.00 | 0.00 | 0.00 | 25 | 1008.6 |
| 20260905022203 | 67 | 235 | 6.0 | 15.0 | 0.00 | 0.00 | 0.00 | 25 | 1008.6 |
| 20260905022104 | 68 | 232 | 10.0 | 15.0 | 0.00 | 0.00 | 0.00 | 25 | 1008.6 |
| 20260905022004 | 68 | 201 | 2.0 | 6.0 | 0.00 | 0.00 | 0.00 | 26 | 1008.7 |
| 20260905021903 | 68 | 0 | 0.0 | 6.0 | 0.00 | 0.00 | 0.00 | 26 | 1008.6 |
| 20260905021803 | 68 | 207 | 1.0 | 6.0 | 0.00 | 0.00 | 0.00 | 26 | 1008.6 |
| 20260905021704 | 68 | 0 | 0.0 | 6.0 | 0.00 | 0.00 | 0.00 | 26 | 1008.6 |
| 20260905021604 | 68 | 206 | 4.0 | 6.0 | 0.00 | 0.00 | 0.00 | 26 | 1008.6 |
| 20260905021504 | 68 | 160 | 4.0 | 6.0 | 0.00 | 0.00 | 0.00 | 26 | 1008.6 |
| 20260905021404 | 68 | 0 | 0.0 | 10.0 | 0.00 | 0.00 | 0.00 | 26 | 1008.7 |
| 20260905021303 | 68 | 215 | 2.0 | 10.0 | 0.00 | 0.00 | 0.00 | 26 | 1008.7 |
| 20260905021204 | 68 | 246 | 2.0 | 12.0 | 0.00 | 0.00 | 0.00 | 26 | 1008.6 |
| 20260905021104 | 68 | 230 | 2.0 | 12.0 | 0.00 | 0.00 | 0.00 | 26 | 1008.5 |
| 20260905021003 | 68 | 226 | 2.0 | 12.0 | 0.00 | 0.00 | 0.00 | 26 | 1008.8 |
| 20260905020904 | 68 | 222 | 1.0 | 12.0 | 0.00 | 0.00 | 0.00 | 26 | 1008.8 |
| 20260905020804 | 68 | 208 | 1.0 | 12.0 | 0.00 | 0.00 | 0.00 | 26 | 1008.7 |
| 20260905020704 | 68 | 222 | 1.0 | 12.0 | 0.00 | 0.00 | 0.00 | 26 | 1008.8 |
| 20260905020604 | 69 | 228 | 1.0 | 12.0 | 0.00 | 0.00 | 0.00 | 25 | 1008.8 |
| 20260905020503 | 69 | 243 | 2.0 | 15.0 | 0.00 | 0.00 | 0.00 | 25 | 1008.7 |
| 20260905020403 | 69 | 234 | 4.0 | 15.0 | 0.00 | 0.00 | 0.00 | 25 | 1008.8 |
| 20260905020304 | 69 | 244 | 4.0 | 15.0 | 0.00 | 0.00 | 0.00 | 25 | 1008.7 |
| 20260905020204 | 69 | 235 | 4.0 | 15.0 | 0.00 | 0.00 | 0.00 | 26 | 1008.7 |
| 20260905020104 | 69 | 242 | 1.0 | 15.0 | 0.00 | 0.00 | 0.00 | 25 | 1008.6 |
| 20260905020003 | 69 | 243 | 1.0 | 15.0 | 0.00 | 0.00 | 0.00 | 25 | 1008.6 |
| 20260905015904 | 69 | 247 | 6.0 | 15.0 | 0.00 | 0.00 | 0.00 | 25 | 1008.6 |
| 20260905015804 | 70 | 252 | 7.0 | 15.0 | 0.00 | 0.00 | 0.00 | 25 | 1008.7 |
| 20260905015703 | 70 | 252 | 4.0 | 15.0 | 0.00 | 0.00 | 0.00 | 24 | 1008.8 |
| 20260905015603 | 70 | 255 | 6.0 | 15.0 | 0.00 | 0.00 | 0.00 | 24 | 1008.6 |
| 20260905015504 | 70 | 242 | 4.0 | 11.0 | 0.00 | 0.00 | 0.00 | 23 | 1008.7 |
| 20260905015404 | 70 | 249 | 2.0 | 11.0 | 0.00 | 0.00 | 0.00 | 23 | 1008.6 |
| 20260905015306 | 71 | 263 | 2.0 | 14.0 | 0.00 | 0.00 | 0.00 | 23 | 1008.5 |
| 20260905015203 | 71 | 270 | 6.0 | 14.0 | 0.00 | 0.00 | 0.00 | 23 | 1008.5 |
| 20260905015104 | 71 | 272 | 4.0 | 17.0 | 0.00 | 0.00 | 0.00 | 23 | 1008.5 |
| 20260905015004 | 71 | 274 | 4.0 | 17.0 | 0.00 | 0.00 | 0.00 | 23 | 1008.6 |
| 20260905014903 | 71 | 268 | 7.0 | 17.0 | 0.00 | 0.00 | 0.00 | 23 | 1008.5 |
| 20260905014803 | 71 | 264 | 4.0 | 17.0 | 0.00 | 0.00 | 0.00 | 22 | 1008.4 |
| 20260905014703 | 71 | 262 | 2.0 | 17.0 | 0.00 | 0.00 | 0.00 | 22 | 1008.4 |
| 20260905014604 | 71 | 261 | 4.0 | 17.0 | 0.00 | 0.00 | 0.00 | 22 | 1008.4 |
| 20260905014403 | 71 | 259 | 8.0 | 17.0 | 0.00 | 0.00 | 0.00 | 22 | 1008.5 |
| 20260905014304 | 71 | 255 | 6.0 | 17.0 | 0.00 | 0.00 | 0.00 | 22 | 1008.3 |
| 20260905014204 | 72 | 250 | 9.0 | 17.0 | 0.00 | 0.00 | 0.00 | 21 | 1008.4 |
| 20260905014103 | 72 | 241 | 13.0 | 17.0 | 0.00 | 0.00 | 0.00 | 21 | 1008.3 |
| 20260905014004 | 72 | 236 | 8.0 | 17.0 | 0.00 | 0.00 | 0.00 | 21 | 1008.4 |
| 20260905013904 | 72 | 236 | 9.0 | 17.0 | 0.00 | 0.00 | 0.00 | 21 | 1008.4 |
| 20260905013803 | 72 | 238 | 8.0 | 17.0 | 0.00 | 0.00 | 0.00 | 20 | 1008.3 |
| 20260905013704 | 72 | 241 | 6.0 | 17.0 | 0.00 | 0.00 | 0.00 | 20 | 1008.2 |
| 20260905013604 | 72 | 231 | 10.0 | 17.0 | 0.00 | 0.00 | 0.00 | 19 | 1008.4 |
| 20260905013503 | 72 | 236 | 8.0 | 15.0 | 0.00 | 0.00 | 0.00 | 20 | 1008.3 |
| 20260905013403 | 72 | 207 | 8.0 | 15.0 | 0.00 | 0.00 | 0.00 | 20 | 1008.2 |
| 20260905013304 | 72 | 202 | 4.0 | 13.0 | 0.00 | 0.00 | 0.00 | 20 | 1008.2 |
| 20260905013204 | 72 | 162 | 4.0 | 10.0 | 0.00 | 0.00 | 0.00 | 21 | 1008.3 |
| 20260905013103 | 73 | 170 | 1.0 | 10.0 | 0.00 | 0.00 | 0.00 | 21 | 1008.5 |
| 20260905013003 | 73 | 184 | 1.0 | 10.0 | 0.00 | 0.00 | 0.00 | 21 | 1008.5 |
| 20260905012904 | 73 | 217 | 2.0 | 10.0 | 0.00 | 0.00 | 0.00 | 20 | 1008.3 |
| 20260905012804 | 73 | 232 | 2.0 | 13.0 | 0.00 | 0.00 | 0.00 | 20 | 1008.2 |
| 20260905012703 | 73 | 217 | 1.0 | 13.0 | 0.00 | 0.00 | 0.00 | 21 | 1008.3 |
| 20260905012204 | 73 | 241 | 4.0 | 13.0 | 0.00 | 0.00 | 0.00 | 21 | 1008.1 |
| 20260905012103 | 73 | 236 | 2.0 | 13.0 | 0.00 | 0.00 | 0.00 | 21 | 1008.2 |
| 20260905012004 | 73 | 242 | 5.0 | 13.0 | 0.00 | 0.00 | 0.00 | 21 | 1008.3 |
| 20260905011903 | 73 | 241 | 6.0 | 13.0 | 0.00 | 0.00 | 0.00 | 20 | 1008.3 |
| 20260905011803 | 73 | 247 | 8.0 | 21.0 | 0.00 | 0.00 | 0.00 | 20 | 1008.2 |
| 20260905011703 | 73 | 241 | 2.0 | 21.0 | 0.00 | 0.00 | 0.00 | 21 | 1008.2 |
| 20260905011604 | 73 | 245 | 3.0 | 21.0 | 0.00 | 0.00 | 0.00 | 21 | 1008.3 |
| 20260905011503 | 73 | 242 | 3.0 | 21.0 | 0.00 | 0.00 | 0.00 | 21 | 1008.3 |
| 20260905011403 | 73 | 238 | 4.0 | 21.0 | 0.00 | 0.00 | 0.00 | 22 | 1008.3 |
| 20260905011303 | 73 | 243 | 2.0 | 22.0 | 0.00 | 0.00 | 0.00 | 22 | 1008.2 |
| 20260905011204 | 72 | 247 | 4.0 | 22.0 | 0.00 | 0.00 | 0.00 | 21 | 1008.3 |
| 20260905011104 | 72 | 254 | 8.0 | 22.0 | 0.00 | 0.00 | 0.00 | 22 | 1008.3 |
| 20260905010903 | 72 | 257 | 8.0 | 22.0 | 0.00 | 0.00 | 0.00 | 22 | 1008.3 |
| 20260905010804 | 72 | 256 | 10.0 | 22.0 | 0.00 | 0.00 | 0.00 | 23 | 1008.2 |
| 20260905010703 | 72 | 260 | 9.0 | 22.0 | 0.00 | 0.00 | 0.00 | 22 | 1008.2 |
| 20260905010603 | 72 | 260 | 11.0 | 22.0 | 0.00 | 0.00 | 0.00 | 22 | 1008.1 |
| 20260905010404 | 73 | 271 | 15.0 | 22.0 | 0.00 | 0.00 | 0.00 | 22 | 1008.0 |
| 20260905010304 | 73 | 268 | 12.0 | 20.0 | 0.00 | 0.00 | 0.00 | 22 | 1008.2 |
| 20260905010203 | 73 | 262 | 15.0 | 21.0 | 0.00 | 0.00 | 0.00 | 21 | 1008.0 |
| 20260905010103 | 74 | 255 | 11.0 | 21.0 | 0.00 | 0.00 | 0.00 | 21 | 1008.1 |
| 20260905010004 | 74 | 247 | 15.0 | 21.0 | 0.00 | 0.00 | 0.00 | 21 | 1008.0 |
| 20260905005803 | 74 | 255 | 3.0 | 25.0 | 0.00 | 0.00 | 0.00 | 21 | 1008.0 |
| 20260905005703 | 74 | 250 | 4.0 | 25.0 | 0.00 | 0.00 | 0.00 | 20 | 1008.1 |
| 20260905005604 | 74 | 246 | 5.0 | 25.0 | 0.00 | 0.00 | 0.00 | 20 | 1008.1 |
| 20260905005504 | 74 | 248 | 9.0 | 25.0 | 0.00 | 0.00 | 0.00 | 21 | 1008.0 |
| 20260905005403 | 74 | 245 | 5.0 | 25.0 | 0.00 | 0.00 | 0.00 | 21 | 1008.1 |
| 20260905004903 | 74 | 258 | 17.0 | 25.0 | 0.00 | 0.00 | 0.00 | 20 | 1007.9 |
| 20260905004804 | 74 | 253 | 11.0 | 25.0 | 0.00 | 0.00 | 0.00 | 20 | 1007.9 |
| 20260905004703 | 74 | 260 | 13.0 | 27.0 | 0.00 | 0.00 | 0.00 | 20 | 1008.0 |
| 20260905004606 | 74 | 264 | 11.0 | 27.0 | 0.00 | 0.00 | 0.00 | 19 | 1008.0 |
| 20260905004504 | 74 | 264 | 11.0 | 27.0 | 0.00 | 0.00 | 0.00 | 19 | 1008.0 |
| 20260905004403 | 74 | 266 | 7.0 | 27.0 | 0.00 | 0.00 | 0.00 | 19 | 1007.9 |
| 20260905004303 | 74 | 267 | 11.0 | 27.0 | 0.00 | 0.00 | 0.00 | 19 | 1007.9 |
| 20260905004204 | 74 | 266 | 18.0 | 27.0 | 0.00 | 0.00 | 0.00 | 18 | 1007.8 |
| 20260905004103 | 74 | 266 | 12.0 | 27.0 | 0.00 | 0.00 | 0.00 | 19 | 1007.9 |
| 20260905004003 | 74 | 264 | 12.0 | 27.0 | 0.00 | 0.00 | 0.00 | 18 | 1007.9 |
| 20260905003904 | 75 | 269 | 15.0 | 27.0 | 0.00 | 0.00 | 0.00 | 18 | 1007.9 |
| 20260905003803 | 75 | 269 | 13.0 | 27.0 | 0.00 | 0.00 | 0.00 | 18 | 1007.9 |
| 20260905003703 | 75 | 265 | 19.0 | 27.0 | 0.00 | 0.00 | 0.00 | 17 | 1007.8 |
| 20260905003603 | 75 | 262 | 13.0 | 23.0 | 0.00 | 0.00 | 0.00 | 17 | 1007.9 |
| 20260905003504 | 75 | 259 | 13.0 | 23.0 | 0.00 | 0.00 | 0.00 | 18 | 1007.9 |
| 20260905003403 | 75 | 259 | 8.0 | 19.0 | 0.00 | 0.00 | 0.00 | 18 | 1008.0 |
| 20260905003303 | 76 | 262 | 11.0 | 19.0 | 0.00 | 0.00 | 0.00 | 18 | 1008.1 |
| 20260905003203 | 75 | 268 | 8.0 | 19.0 | 0.00 | 0.00 | 0.00 | 18 | 1008.0 |
| 20260905003004 | 75 | 249 | 8.0 | 19.0 | 0.00 | 0.00 | 0.00 | 18 | 1007.9 |
| 20260905002903 | 76 | 241 | 8.0 | 19.0 | 0.00 | 0.00 | 0.00 | 18 | 1007.9 |
| 20260905002803 | 76 | 241 | 13.0 | 23.0 | 0.00 | 0.00 | 0.00 | 18 | 1007.8 |
| 20260905002703 | 76 | 242 | 9.0 | 23.0 | 0.00 | 0.00 | 0.00 | 18 | 1007.9 |
| 20260905002604 | 76 | 240 | 9.0 | 23.0 | 0.00 | 0.00 | 0.00 | 18 | 1007.9 |
| 20260905002504 | 76 | 239 | 9.0 | 23.0 | 0.00 | 0.00 | 0.00 | 18 | 1007.9 |
| 20260905002403 | 76 | 232 | 5.0 | 23.0 | 0.00 | 0.00 | 0.00 | 18 | 1007.9 |
| 20260905002306 | 76 | 231 | 5.0 | 23.0 | 0.00 | 0.00 | 0.00 | 18 | 1007.9 |
| 20260905002203 | 76 | 228 | 4.0 | 23.0 | 0.00 | 0.00 | 0.00 | 18 | 1007.9 |
| 20260905002103 | 76 | 226 | 2.0 | 23.0 | 0.00 | 0.00 | 0.00 | 18 | 1008.0 |
| 20260905002003 | 76 | 229 | 11.0 | 23.0 | 0.00 | 0.00 | 0.00 | 18 | 1008.2 |
| 20260905001904 | 76 | 225 | 15.0 | 23.0 | 0.00 | 0.00 | 0.00 | 18 | 1007.8 |
| 20260905001803 | 76 | 213 | 7.0 | 16.0 | 0.00 | 0.00 | 0.00 | 18 | 1008.0 |
| 20260905001703 | 76 | 221 | 7.0 | 16.0 | 0.00 | 0.00 | 0.00 | 18 | 1008.0 |
| 20260905001603 | 76 | 224 | 4.0 | 16.0 | 0.00 | 0.00 | 0.00 | 19 | 1008.0 |
| 20260905001504 | 76 | 233 | 4.0 | 16.0 | 0.00 | 0.00 | 0.00 | 19 | 1008.0 |
| 20260905001404 | 76 | 244 | 3.0 | 16.0 | 0.00 | 0.00 | 0.00 | 18 | 1008.2 |
| 20260905001303 | 76 | 237 | 3.0 | 16.0 | 0.00 | 0.00 | 0.00 | 18 | 1008.0 |
| 20260905001203 | 76 | 242 | 4.0 | 16.0 | 0.00 | 0.00 | 0.00 | 18 | 1008.2 |
| 20260905001104 | 76 | 249 | 7.0 | 16.0 | 0.00 | 0.00 | 0.00 | 18 | 1008.1 |
| 20260905001004 | 76 | 250 | 4.0 | 16.0 | 0.00 | 0.00 | 0.00 | 18 | 1008.0 |
| 20260905000903 | 76 | 259 | 5.0 | 20.0 | 0.00 | 0.00 | 0.00 | 18 | 1008.1 |
| 20260905000803 | 76 | 266 | 8.0 | 20.0 | 0.00 | 0.00 | 0.00 | 18 | 1008.0 |
| 20260905000704 | 76 | 266 | 4.0 | 20.0 | 0.00 | 0.00 | 0.00 | 18 | 1007.9 |
| 20260905000604 | 76 | 270 | 4.0 | 20.0 | 0.00 | 0.00 | 0.00 | 18 | 1007.9 |
| 20260905000503 | 76 | 272 | 7.0 | 20.0 | 0.00 | 0.00 | 0.00 | 18 | 1008.0 |
| 20260905000404 | 76 | 264 | 8.0 | 20.0 | 0.00 | 0.00 | 0.00 | 18 | 1008.0 |
| 20260905000304 | 76 | 268 | 8.0 | 20.0 | 0.00 | 0.00 | 0.00 | 18 | 1008.0 |
| 20260905000204 | 76 | 265 | 5.0 | 20.0 | 0.00 | 0.00 | 0.00 | 18 | 1008.1 |
| 20260905000104 | 76 | 262 | 9.0 | 20.0 | 0.00 | 0.00 | 0.00 | 17 | 1008.0 |
| 20260905000003 | 76 | 269 | 14.0 | 20.0 | 0.00 | 0.00 | 0.00 | 17 | 1008.1 |
| 20260904235904 | 77 | 273 | 8.0 | 17.0 | 0.00 | 0.00 | 0.00 | 17 | 1007.9 |
| 20260904235804 | 77 | 270 | 11.0 | 17.0 | 0.00 | 0.00 | 0.00 | 17 | 1007.9 |
| 20260904235703 | 77 | 270 | 6.0 | 15.0 | 0.00 | 0.00 | 0.00 | 17 | 1007.8 |
| 20260904235604 | 77 | 265 | 7.0 | 15.0 | 0.00 | 0.00 | 0.00 | 17 | 1008.1 |
| 20260904235504 | 77 | 261 | 4.0 | 15.0 | 0.00 | 0.00 | 0.00 | 17 | 1008.0 |
| 20260904235004 | 77 | 277 | 7.0 | 14.0 | 0.00 | 0.00 | 0.00 | 17 | 1008.0 |
| 20260904234903 | 77 | 277 | 8.0 | 14.0 | 0.00 | 0.00 | 0.00 | 17 | 1008.0 |
| 20260904234804 | 77 | 281 | 4.0 | 14.0 | 0.00 | 0.00 | 0.00 | 17 | 1007.9 |
| 20260904234703 | 77 | 280 | 4.0 | 14.0 | 0.00 | 0.00 | 0.00 | 17 | 1007.9 |
| 20260904234604 | 77 | 286 | 11.0 | 14.0 | 0.00 | 0.00 | 0.00 | 17 | 1008.0 |
| 20260904234504 | 77 | 292 | 11.0 | 14.0 | 0.00 | 0.00 | 0.00 | 17 | 1007.9 |
| 20260904234403 | 77 | 294 | 6.0 | 12.0 | 0.00 | 0.00 | 0.00 | 17 | 1007.9 |
| 20260904234304 | 77 | 295 | 5.0 | 12.0 | 0.00 | 0.00 | 0.00 | 17 | 1007.9 |
| 20260904234204 | 77 | 291 | 4.0 | 12.0 | 0.00 | 0.00 | 0.00 | 17 | 1007.8 |
| 20260904234103 | 77 | 290 | 6.0 | 12.0 | 0.00 | 0.00 | 0.00 | 17 | 1008.0 |
| 20260904234004 | 77 | 286 | 4.0 | 12.0 | 0.00 | 0.00 | 0.00 | 17 | 1007.9 |
| 20260904233904 | 77 | 286 | 4.0 | 12.0 | 0.00 | 0.00 | 0.00 | 16 | 1008.0 |
| 20260904233803 | 77 | 284 | 4.0 | 13.0 | 0.00 | 0.00 | 0.00 | 17 | 1007.9 |
| 20260904233704 | 77 | 284 | 6.0 | 13.0 | 0.00 | 0.00 | 0.00 | 17 | 1007.9 |
| 20260904233603 | 78 | 283 | 6.0 | 21.0 | 0.00 | 0.00 | 0.00 | 17 | 1007.9 |
| 20260904233504 | 78 | 279 | 8.0 | 21.0 | 0.00 | 0.00 | 0.00 | 17 | 1007.9 |
| 20260904233404 | 78 | 282 | 4.0 | 21.0 | 0.00 | 0.00 | 0.00 | 17 | 1007.9 |
| 20260904232803 | 78 | 275 | 8.0 | 21.0 | 0.00 | 0.00 | 0.00 | 17 | 1007.8 |
| 20260904232703 | 78 | 275 | 10.0 | 21.0 | 0.00 | 0.00 | 0.00 | 17 | 1007.9 |
| 20260904232604 | 78 | 271 | 12.0 | 21.0 | 0.00 | 0.00 | 0.00 | 17 | 1007.8 |
| 20260904232504 | 78 | 271 | 8.0 | 16.0 | 0.00 | 0.00 | 0.00 | 17 | 1007.8 |
| 20260904232403 | 78 | 265 | 6.0 | 16.0 | 0.00 | 0.00 | 0.00 | 16 | 1007.8 |
| 20260904232306 | 78 | 259 | 11.0 | 16.0 | 0.00 | 0.00 | 0.00 | 16 | 1007.8 |
| 20260904232203 | 78 | 261 | 10.0 | 16.0 | 0.00 | 0.00 | 0.00 | 16 | 1007.7 |
| 20260904232104 | 78 | 256 | 10.0 | 16.0 | 0.00 | 0.00 | 0.00 | 15 | 1007.8 |
| 20260904232003 | 78 | 253 | 8.0 | 21.0 | 0.00 | 0.00 | 0.00 | 16 | 1007.8 |
| 20260904231904 | 79 | 258 | 10.0 | 21.0 | 0.00 | 0.00 | 0.00 | 15 | 1007.8 |
| 20260904231804 | 79 | 258 | 8.0 | 21.0 | 0.00 | 0.00 | 0.00 | 15 | 1007.8 |
| 20260904231703 | 79 | 258 | 7.0 | 21.0 | 0.00 | 0.00 | 0.00 | 15 | 1007.8 |
| 20260904231603 | 79 | 254 | 8.0 | 21.0 | 0.00 | 0.00 | 0.00 | 15 | 1007.7 |
| 20260904231504 | 79 | 243 | 8.0 | 21.0 | 0.00 | 0.00 | 0.00 | 15 | 1007.8 |
| 20260904231403 | 79 | 245 | 11.0 | 21.0 | 0.00 | 0.00 | 0.00 | 15 | 1007.8 |
| 20260904231303 | 78 | 245 | 11.0 | 21.0 | 0.00 | 0.00 | 0.00 | 14 | 1007.7 |
| 20260904231203 | 78 | 241 | 8.0 | 21.0 | 0.00 | 0.00 | 0.00 | 15 | 1007.8 |
| 20260904231104 | 78 | 238 | 9.0 | 21.0 | 0.00 | 0.00 | 0.00 | 15 | 1007.8 |
| 20260904231003 | 79 | 238 | 12.0 | 21.0 | 0.00 | 0.00 | 0.00 | 15 | 1007.7 |
| 20260904230903 | 79 | 233 | 11.0 | 21.0 | 0.00 | 0.00 | 0.00 | 14 | 1007.7 |
| 20260904230804 | 79 | 237 | 11.0 | 21.0 | 0.00 | 0.00 | 0.00 | 14 | 1007.7 |
| 20260904230703 | 79 | 237 | 11.0 | 21.0 | 0.00 | 0.00 | 0.00 | 14 | 1007.7 |
| 20260904230506 | 79 | 254 | 11.0 | 21.0 | 0.00 | 0.00 | 0.00 | 13 | 1007.7 |
| 20260904230405 | 80 | 254 | 10.0 | 21.0 | 0.00 | 0.00 | 0.00 | 13 | 1007.8 |
| 20260904230305 | 80 | 255 | 14.0 | 22.0 | 0.00 | 0.00 | 0.00 | 13 | 1007.7 |
| 20260904230205 | 80 | 254 | 10.0 | 22.0 | 0.00 | 0.00 | 0.00 | 14 | 1007.7 |
| 20260904230105 | 79 | 259 | 13.0 | 22.0 | 0.00 | 0.00 | 0.00 | 14 | 1007.7 |
| 20260904230006 | 79 | 267 | 15.0 | 22.0 | 0.00 | 0.00 | 0.00 | 13 | 1007.7 |
| 20260904225905 | 80 | 273 | 15.0 | 22.0 | 0.00 | 0.00 | 0.00 | 13 | 1007.7 |
| 20260904225806 | 80 | 268 | 10.0 | 22.0 | 0.00 | 0.00 | 0.00 | 14 | 1007.7 |
| 20260904225705 | 80 | 270 | 7.0 | 22.0 | 0.00 | 0.00 | 0.00 | 15 | 1007.7 |
| 20260904225606 | 79 | 267 | 7.0 | 22.0 | 0.00 | 0.00 | 0.00 | 14 | 1007.7 |
| 20260904225505 | 79 | 265 | 10.0 | 22.0 | 0.00 | 0.00 | 0.00 | 13 | 1007.6 |
| 20260904225005 | 79 | 262 | 8.0 | 19.0 | 0.00 | 0.00 | 0.00 | 15 | 1007.8 |
| 20260904224905 | 79 | 262 | 6.0 | 19.0 | 0.00 | 0.00 | 0.00 | 14 | 1007.7 |
| 20260904224805 | 79 | 260 | 14.0 | 19.0 | 0.00 | 0.00 | 0.00 | 13 | 1007.8 |
| 20260904224705 | 80 | 255 | 12.0 | 17.0 | 0.00 | 0.00 | 0.00 | 14 | 1007.8 |
| 20260904224605 | 80 | 247 | 11.0 | 18.0 | 0.00 | 0.00 | 0.00 | 14 | 1007.8 |
| 20260904224505 | 80 | 252 | 11.0 | 18.0 | 0.00 | 0.00 | 0.00 | 14 | 1007.7 |
| 20260904224305 | 80 | 262 | 8.0 | 18.0 | 0.00 | 0.00 | 0.00 | 13 | 1007.8 |
| 20260904224205 | 79 | 270 | 8.0 | 18.0 | 0.00 | 0.00 | 0.00 | 13 | 1007.8 |
| 20260904224105 | 79 | 262 | 9.0 | 18.0 | 0.00 | 0.00 | 0.00 | 13 | 1007.8 |
| 20260904224006 | 79 | 267 | 10.0 | 18.0 | 0.00 | 0.00 | 0.00 | 12 | 1007.7 |
| 20260904223905 | 79 | 264 | 11.0 | 18.0 | 0.00 | 0.00 | 0.00 | 12 | 1007.7 |
| 20260904223805 | 79 | 262 | 11.0 | 18.0 | 0.00 | 0.00 | 0.00 | 13 | 1007.8 |
| 20260904223705 | 79 | 262 | 11.0 | 18.0 | 0.00 | 0.00 | 0.00 | 14 | 1007.8 |
| 20260904223605 | 80 | 269 | 11.0 | 17.0 | 0.00 | 0.00 | 0.00 | 14 | 1007.8 |
| 20260904223505 | 80 | 265 | 11.0 | 17.0 | 0.00 | 0.00 | 0.00 | 14 | 1007.8 |
| 20260904223406 | 80 | 260 | 8.0 | 17.0 | 0.00 | 0.00 | 0.00 | 13 | 1007.8 |
| 20260904223305 | 79 | 260 | 6.0 | 17.0 | 0.00 | 0.00 | 0.00 | 13 | 1007.7 |
| 20260904223206 | 79 | 257 | 10.0 | 21.0 | 0.00 | 0.00 | 0.00 | 14 | 1007.8 |
| 20260904223106 | 79 | 266 | 9.0 | 23.0 | 0.00 | 0.00 | 0.00 | 14 | 1007.8 |
| 20260904223005 | 79 | 262 | 9.0 | 23.0 | 0.00 | 0.00 | 0.00 | 14 | 1007.7 |
| 20260904222906 | 78 | 263 | 7.0 | 23.0 | 0.00 | 0.00 | 0.00 | 15 | 1007.8 |
| 20260904222805 | 78 | 267 | 8.0 | 23.0 | 0.00 | 0.00 | 0.00 | 16 | 1007.8 |
| 20260904222706 | 78 | 268 | 12.0 | 23.0 | 0.00 | 0.00 | 0.00 | 16 | 1007.8 |
| 20260904222605 | 78 | 266 | 11.0 | 23.0 | 0.00 | 0.00 | 0.00 | 16 | 1007.7 |
| 20260904222505 | 78 | 263 | 13.0 | 23.0 | 0.00 | 0.00 | 0.00 | 16 | 1007.8 |
| 20260904222405 | 79 | 258 | 11.0 | 23.0 | 0.00 | 0.00 | 0.00 | 16 | 1007.8 |
| 20260904221805 | 80 | 242 | 11.0 | 24.0 | 0.00 | 0.00 | 0.00 | 15 | 1007.8 |
| 20260904221705 | 80 | 244 | 12.0 | 24.0 | 0.00 | 0.00 | 0.00 | 15 | 1007.8 |
| 20260904221605 | 80 | 253 | 9.0 | 24.0 | 0.00 | 0.00 | 0.00 | 12 | 1007.6 |
| 20260904221506 | 80 | 259 | 9.0 | 24.0 | 0.00 | 0.00 | 0.00 | 12 | 1007.6 |
| 20260904221405 | 80 | 266 | 7.0 | 24.0 | 0.00 | 0.00 | 0.00 | 12 | 1007.6 |
| 20260904221305 | 80 | 281 | 15.0 | 24.0 | 0.00 | 0.00 | 0.00 | 12 | 1007.8 |
| 20260904221205 | 80 | 276 | 12.0 | 21.0 | 0.00 | 0.00 | 0.00 | 13 | 1007.7 |
| 20260904221106 | 80 | 280 | 11.0 | 21.0 | 0.00 | 0.00 | 0.00 | 13 | 1007.7 |
| 20260904221005 | 79 | 286 | 7.0 | 21.0 | 0.00 | 0.00 | 0.00 | 14 | 1007.6 |
| 20260904220905 | 79 | 286 | 4.0 | 21.0 | 0.00 | 0.00 | 0.00 | 15 | 1007.7 |
| 20260904220806 | 80 | 284 | 10.0 | 21.0 | 0.00 | 0.00 | 0.00 | 15 | 1007.7 |
| 20260904220705 | 80 | 280 | 12.0 | 21.0 | 0.00 | 0.00 | 0.00 | 15 | 1007.7 |
| 20260904220605 | 80 | 270 | 11.0 | 18.0 | 0.00 | 0.00 | 0.00 | 14 | 1007.7 |
| 20260904220506 | 80 | 264 | 7.0 | 17.0 | 0.00 | 0.00 | 0.00 | 13 | 1007.8 |
| 20260904220405 | 80 | 256 | 13.0 | 17.0 | 0.00 | 0.00 | 0.00 | 13 | 1007.8 |
| 20260904220306 | 80 | 249 | 10.0 | 17.0 | 0.00 | 0.00 | 0.00 | 14 | 1007.7 |
| 20260904220105 | 81 | 247 | 12.0 | 17.0 | 0.00 | 0.00 | 0.00 | 13 | 1007.9 |
| 20260904220005 | 80 | 252 | 12.0 | 17.0 | 0.00 | 0.00 | 0.00 | 13 | 1007.8 |
| 20260904215905 | 80 | 258 | 8.0 | 15.0 | 0.00 | 0.00 | 0.00 | 12 | 1007.7 |
| 20260904215805 | 80 | 260 | 7.0 | 15.0 | 0.00 | 0.00 | 0.00 | 12 | 1007.7 |
| 20260904215705 | 80 | 260 | 9.0 | 15.0 | 0.00 | 0.00 | 0.00 | 12 | 1007.7 |
| 20260904215106 | 80 | 269 | 8.0 | 20.0 | 0.00 | 0.00 | 0.00 | 16 | 1007.6 |
| 20260904215005 | 80 | 268 | 9.0 | 20.0 | 0.00 | 0.00 | 0.00 | 16 | 1007.6 |
| 20260904214905 | 80 | 266 | 8.0 | 20.0 | 0.00 | 0.00 | 0.00 | 15 | 1007.6 |
| 20260904214805 | 80 | 266 | 9.0 | 20.0 | 0.00 | 0.00 | 0.00 | 15 | 1007.8 |
| 20260904214705 | 80 | 262 | 14.0 | 20.0 | 0.00 | 0.00 | 0.00 | 14 | 1007.8 |
| 20260904214605 | 80 | 260 | 9.0 | 20.0 | 0.00 | 0.00 | 0.00 | 15 | 1007.8 |
| 20260904214406 | 80 | 262 | 13.0 | 20.0 | 0.00 | 0.00 | 0.00 | 15 | 1007.7 |
| 20260904214305 | 80 | 264 | 14.0 | 22.0 | 0.00 | 0.00 | 0.00 | 14 | 1007.6 |
| 20260904214206 | 80 | 264 | 11.0 | 22.0 | 0.00 | 0.00 | 0.00 | 14 | 1007.7 |
| 20260904214105 | 80 | 265 | 15.0 | 22.0 | 0.00 | 0.00 | 0.00 | 14 | 1007.5 |
| 20260904213905 | 81 | 253 | 13.0 | 22.0 | 0.00 | 0.00 | 0.00 | 14 | 1007.7 |
| 20260904213805 | 81 | 249 | 10.0 | 22.0 | 0.00 | 0.00 | 0.00 | 13 | 1007.8 |
| 20260904213705 | 81 | 253 | 8.0 | 22.0 | 0.00 | 0.00 | 0.00 | 13 | 1007.8 |
| 20260904213605 | 81 | 253 | 8.0 | 22.0 | 0.00 | 0.00 | 0.00 | 12 | 1007.8 |
| 20260904213505 | 81 | 256 | 9.0 | 22.0 | 0.00 | 0.00 | 0.00 | 11 | 1007.7 |
| 20260904213405 | 81 | 253 | 15.0 | 22.0 | 0.00 | 0.00 | 0.00 | 12 | 1007.7 |
| 20260904213305 | 81 | 245 | 15.0 | 22.0 | 0.00 | 0.00 | 0.00 | 11 | 1007.6 |
| 20260904213206 | 81 | 236 | 6.0 | 17.0 | 0.00 | 0.00 | 0.00 | 14 | 1007.6 |
| 20260904213105 | 81 | 233 | 4.0 | 17.0 | 0.00 | 0.00 | 0.00 | 13 | 1007.7 |
| 20260904213005 | 81 | 237 | 4.0 | 17.0 | 0.00 | 0.00 | 0.00 | 13 | 1007.8 |
| 20260904212905 | 80 | 241 | 6.0 | 17.0 | 0.00 | 0.00 | 0.00 | 11 | 1007.8 |
| 20260904212806 | 80 | 238 | 4.0 | 17.0 | 0.00 | 0.00 | 0.00 | 10 | 1007.8 |
| 20260904212705 | 80 | 233 | 8.0 | 17.0 | 0.00 | 0.00 | 0.00 | 11 | 1007.9 |
| 20260904212605 | 80 | 233 | 6.0 | 17.0 | 0.00 | 0.00 | 0.00 | 12 | 1007.8 |
| 20260904212506 | 80 | 229 | 7.0 | 17.0 | 0.00 | 0.00 | 0.00 | 12 | 1007.7 |
| 20260904212405 | 80 | 235 | 7.0 | 23.0 | 0.00 | 0.00 | 0.00 | 11 | 1007.6 |
| 20260904212306 | 80 | 236 | 12.0 | 23.0 | 0.00 | 0.00 | 0.00 | 11 | 1007.7 |
| 20260904212205 | 80 | 242 | 9.0 | 23.0 | 0.00 | 0.00 | 0.00 | 12 | 1007.7 |
| 20260904212105 | 80 | 245 | 8.0 | 23.0 | 0.00 | 0.00 | 0.00 | 13 | 1007.7 |
| 20260904212006 | 80 | 242 | 3.0 | 23.0 | 0.00 | 0.00 | 0.00 | 13 | 1007.6 |
| 20260904211905 | 80 | 242 | 2.0 | 23.0 | 0.00 | 0.00 | 0.00 | 13 | 1007.6 |
| 20260904211805 | 80 | 238 | 1.0 | 23.0 | 0.00 | 0.00 | 0.00 | 13 | 1007.7 |
| 20260904211705 | 80 | 240 | 5.0 | 23.0 | 0.00 | 0.00 | 0.00 | 13 | 1007.8 |
| 20260904211606 | 80 | 245 | 13.0 | 23.0 | 0.00 | 0.00 | 0.00 | 13 | 1007.8 |
| 20260904211505 | 80 | 251 | 13.0 | 23.0 | 0.00 | 0.00 | 0.00 | 13 | 1007.8 |
| 20260904211405 | 80 | 257 | 14.0 | 23.0 | 0.00 | 0.00 | 0.00 | 12 | 1007.7 |
| 20260904211305 | 80 | 244 | 6.0 | 13.0 | 0.00 | 0.00 | 0.00 | 11 | 1007.6 |
| 20260904211206 | 80 | 227 | 5.0 | 15.0 | 0.00 | 0.00 | 0.00 | 10 | 1007.8 |
| 20260904210605 | 80 | 240 | 4.0 | 15.0 | 0.00 | 0.00 | 0.00 | 10 | 1007.8 |
| 20260904210505 | 80 | 235 | 3.0 | 15.0 | 0.00 | 0.00 | 0.00 | 11 | 1007.7 |
| 20260904210405 | 80 | 234 | 6.0 | 15.0 | 0.00 | 0.00 | 0.00 | 11 | 1007.7 |
| 20260904210305 | 80 | 240 | 4.0 | 15.0 | 0.00 | 0.00 | 0.00 | 12 | 1007.7 |
| 20260904210205 | 80 | 248 | 6.0 | 15.0 | 0.00 | 0.00 | 0.00 | 12 | 1007.7 |
| 20260904210105 | 79 | 258 | 9.0 | 12.0 | 0.00 | 0.00 | 0.00 | 11 | 1007.7 |